                ,  0.195,  0.292,  0.389,  0.486,  0.583,  0.680,  0.777,  0.874,  0.971,  1.068,  1.165,  1.262,  1.359,  1.456,  1.553,  1.651,  1.748,  1.845,  1.942,  2.039,  2.136,  2.233,  2.330,  2.427,  2.524,  2.621,  2.718,  2.815,  2.912,  3.009,  3.106,  3.203,  3.300,  3.397,  3.494,  3.591,  3.688,  3.785,  3.882,  3.979,  4.076,  4.173,  4.270,  4.367,  4.464,  4.561,  4.658,  4.755,  4.852,  4.950,  5.047,  5.144,  5.241,  5.338,  5.435,  5.532,  5.629,  5.726,  5.823,  5.920,  6.017,  6.114,  6.211,  6.308,  6.405,  6.502,  6.599,  6.696,  6.793,  6.890,  6.987,  7.084,  7.181,  7.278,  7.375,  7.472,  7.569,  7.666,  7.763,  7.860,  7.957,  8.054,  8.151,  8.249,  8.346,  8.443,  8.540,  8.637,  8.734,  8.831,  8.928,  9.025,  9.122,  9.219,  9.316,  9.413,  9.510,  9.607
2010/03/01 00:00,   -0.5,    0.1,    1.1,    2.1,   -0.4,    1.8,    3.1,    3.1,    3.1,    3.2,    3.0,    2.2,    0.9,   -0.0,    1.2,    1.5,    0.4,    1.0,    1.0,    1.5,    1.7,    0.9,  999.0,  999.0,  999.0,   -9.8,  -10.4,  -11.9,  -11.2,  -10.0,   -9.3,  -10.2,  -10.2,   -9.5,  -10.4,   -9.2,   -8.8,   -8.4,   -7.4,   -7.8,   -9.2,    1.0,    0.7,   -1.0,   -1.9,   -1.9,   -3.4,   -3.0,   -3.4,   -3.1,   -3.3,   -3.8,   -4.3,   -6.3,   -6.9,   -6.7,   -5.3,   -5.6,   -5.4,   -5.6,   -5.5,   -6.2,   -7.4,   -7.4,   -6.8,   -5.1,   -4.5,   -4.5,   -4.8,   -3.8,   -4.0,   -5.0,   -6.3,   -7.1,   -8.9,  -10.5,  -11.2,  -12.0,  -12.7,  -13.2,  -13.2,  -12.6,  -12.2,  -11.4,  -11.5,  -11.9,  -12.9,  -13.3,  -13.7,  -13.1,  -13.5,  -13.9,  -13.7,  -12.8,  -11.6,   -9.8,  -11.1,  -10.6
2010/03/01 00:10,  999.0,  999.0,   -1.2,   -2.3,  999.0,   -4.2,  999.0,   -0.0,   -0.5,    0.6,    1.7,    0.3,    3.1,    2.8,    2.0,   -0.3,   -0.7,    0.8,    0.0,   -1.1,   -1.2,   -2.7,   -3.3,   -1.3,   -3.5,   -3.6,   -4.5,  999.0,   -1.9,   -0.2,   -0.2,   -0.5,   -3.4,   -3.4,  999.0,  999.0,  999.0,  999.0,   -7.6,   -6.1,   -5.8,   -5.2,   -4.7,   -4.8,   -4.5,   -3.5,   -3.2,   -3.2,   -2.2,   -2.2,   -2.7,   -3.0,   -3.1,   -3.1,   -3.3,   -2.7,   -3.0,   -3.1,   -3.6,   -3.5,   -3.3,   -2.1,   -2.4,   -1.9,   -1.8,   -1.9,   -2.6,   -3.2,   -3.8,   -4.0,   -4.8,   -5.5,   -6.4,   -6.9,   -7.1,   -7.3,   -7.1,   -7.2,   -7.3,   -7.1,   -7.5,   -8.1,   -8.2,   -8.8,   -9.5,  -10.4,  -11.0,  -11.0,  -10.4,  -10.8,  -11.0,  -10.3,  -10.9,  -10.2,   -9.4,   -9.3,   -8.2,   -8.1
2010/03/01 00:20,    2.7,    3.7,    4.8,    1.4,    8.7,    5.2,    5.6,    2.3,    3.7,    5.1,    2.6,  999.0,    5.4,    7.9,  999.0,    6.3,    5.3,  999.0,  999.0,    1.6,   -0.2,   -1.3,  999.0,   -6.4,  999.0,   -8.0,  999.0,   -9.0,   -9.6,   -9.1,  -10.0,  999.0,  999.0,  999.0,  999.0,  999.0,  999.0,  999.0,  999.0,  999.0,  -12.6,  -11.8,  -10.7,   -6.6,  999.0,   -5.0,   -4.3,   -3.7,   -3.7,   -4.2,   -4.4,   -4.2,   -3.7,   -3.2,   -2.9,   -2.5,   -2.3,   -2.3,   -2.0,   -1.9,   -2.1,   -2.9,   -3.0,   -3.0,   -2.9,   -3.5,   -3.3,   -3.5,   -3.8,   -4.1,   -4.4,   -4.2,   -4.6,   -5.0,   -5.3,   -5.5,   -5.7,   -5.8,   -5.9,   -6.2,   -6.3,   -6.7,   -7.1,   -7.4,   -7.7,   -8.2,   -8.7,   -8.5,   -9.2,   -8.7,   -9.1,   -9.1,   -8.2,   -8.5,   -7.9,   -7.6,   -7.2,   -7.4
2010/03/01 00:30,    2.6,    2.4,  999.0,  999.0,  999.0,    1.2,    2.4,    2.2,    1.8,    0.9,    2.3,    2.7,    2.2,    1.6,    0.9,    2.0,    2.1,    1.2,    0.7,    0.5,   -0.6,   -1.3,   -0.1,   -0.5,   -0.8,   -1.2,   -2.2,   -2.9,   -3.0,   -4.2,   -4.5,   -4.9,   -5.9,   -5.9,   -5.8,   -5.1,   -4.7,   -5.0,   -4.8,   -6.1,   -4.7,   -4.5,   -5.2,   -4.9,   -5.7,   -6.4,   -6.0,   -4.9,   -4.8,   -4.3,   -3.8,   -3.3,   -2.8,   -2.4,   -2.1,   -2.2,   -2.2,   -2.6,   -2.8,   -2.9,   -2.7,   -2.6,   -2.7,   -2.9,   -3.0,   -3.4,   -3.9,   -4.5,   -5.3,   -5.6,   -5.9,   -6.0,   -6.2,   -6.3,   -6.5,   -6.3,   -6.6,   -6.5,   -6.9,   -7.1,   -8.0,   -8.8,   -9.0,   -9.4,   -9.6,   -9.4,   -9.3,   -9.0,   -8.5,   -8.1,   -7.6,   -8.3,   -8.4,   -8.7,   -8.4,   -8.4,   -8.3,   -8.1
2010/03/01 00:40,   -0.7,    1.3,    2.2,    3.2,    3.8,    3.6,    4.1,    4.9,    4.5,    4.9,    5.0,    4.8,    4.4,    3.5,    3.0,    3.4,    2.6,    2.1,    1.6,    0.9,    0.4,   -0.9,   -1.0,   -1.2,   -0.1,   -1.6,   -2.0,   -3.0,  999.0,   -4.7,  999.0,  999.0,   -5.6,   -5.6,   -6.4,   -4.8,   -6.6,   -4.7,   -3.4,   -7.5,   -4.8,   -6.1,  999.0,   -1.6,   -2.5,   -3.0,   -2.3,   -1.7,   -1.5,   -1.4,   -1.4,   -1.5,   -1.5,   -1.6,   -1.1,   -1.6,   -1.4,   -1.0,   -1.6,   -1.9,   -2.6,   -3.1,   -3.6,   -4.2,   -4.7,   -4.9,   -5.2,   -5.3,   -5.2,   -5.5,   -5.8,   -5.9,   -6.2,   -6.5,   -6.6,   -7.0,   -6.6,   -6.3,   -6.2,   -6.2,   -6.1,   -5.9,   -6.0,   -5.8,   -6.0,   -6.5,   -6.7,   -6.4,   -6.2,   -6.0,   -5.8,   -5.7,   -5.7,   -6.0,   -6.7,   -7.2,   -7.8,   -8.3
2010/03/01 00:50,    2.9,    2.8,    3.6,    3.7,    4.3,    2.7,    2.6,   -0.6,   -1.9,  -12.0,  -11.1,    0.6,    1.9,    4.6,    4.5,    3.2,    1.9,    2.9,    0.9,    0.9,   -0.3,   -1.1,   -2.5,   -2.4,   -2.3,   -2.7,   -1.5,   -1.3,   -1.6,   -3.0,   -3.4,   -3.4,   -2.1,   -3.8,   -3.1,   -3.1,   -3.5,   -3.0,   -0.7,   -1.7,   -2.3,  999.0,  999.0,   -3.4,   -3.6,  999.0,   -3.0,   -3.8,   -4.9,   -4.6,   -4.8,   -3.5,   -2.4,   -2.0,   -2.3,   -2.3,   -2.4,   -2.1,   -2.6,   -2.9,   -2.9,   -3.0,   -3.2,   -3.3,   -3.2,   -3.2,   -3.2,   -3.2,   -3.4,   -3.4,   -3.7,   -3.7,   -3.8,   -4.3,   -4.7,   -4.7,   -4.7,   -4.4,   -4.0,   -3.6,   -3.8,   -4.0,   -4.2,   -3.8,   -3.7,   -3.7,   -3.8,   -4.1,   -4.3,   -4.7,   -5.0,   -5.2,   -5.0,   -5.1,   -5.4,   -5.7,   -6.1,   -6.7
2010/03/01 01:00,    0.7,    2.5,    3.3,    3.6,    3.3,   -5.3,    3.2,    3.3,  -10.6,  -14.3,  -13.6,  -10.5,   -1.7,   -5.0,  -10.2,  -11.2,   -2.2,   -5.4,   -5.5,   -6.4,    0.3,    0.1,    0.3,    0.8,    2.4,    3.5,    2.8,    1.8,    2.6,    1.8,    1.9,    1.3,    0.4,    0.9,    1.0,    0.8,  999.0,    0.3,   -0.7,    1.3,   -1.0,  999.0,  999.0,  999.0,  999.0,  999.0,  999.0,   -7.5,   -6.9,   -6.8,   -6.7,   -6.3,   -6.6,   -5.8,   -4.9,   -3.9,   -6.2,   -8.6,   -7.4,   -7.3,   -6.8,   -7.4,   -8.6,   -7.5,   -7.1,   -6.9,   -6.9,   -7.0,   -7.2,   -7.4,   -7.9,   -8.2,   -8.8,   -9.2,   -9.4,   -9.3,   -9.0,   -8.7,   -8.5,   -8.4,   -8.2,   -7.8,   -6.7,   -6.5,   -6.7,   -6.2,   -6.1,   -5.8,   -5.6,   -5.8,   -6.0,   -6.3,   -6.4,   -6.6,   -6.7,   -6.9,   -6.4,   -6.1
2010/03/01 01:10,    2.0,    3.6,    4.0,  999.0,  999.0,  999.0,  999.0,   -9.5,  -14.2,  -16.3,  -14.6,   -3.1,   -9.0,  999.0,  999.0,    6.2,  999.0,    4.5,    3.9,    4.3,  999.0,    1.2,    0.2,    2.5,    2.7,    3.4,    3.2,    2.2,    0.5,   -1.0,   -0.1,  999.0,    0.6,    0.4,    1.2,    0.9,    1.9,    2.6,    1.6,    1.2,    1.1,   -0.0,    0.4,    0.6,  999.0,  999.0,  999.0,   -5.5,   -5.8,   -6.6,   -7.5,   -7.9,   -8.2,   -8.2,   -8.5,   -8.9,   -9.3,   -9.1,   -8.7,   -8.3,   -7.8,   -7.5,   -7.5,   -7.8,   -7.8,   -8.2,   -8.7,   -9.4,   -9.8,  -10.1,  -10.2,  -10.0,   -9.9,  -10.2,  -10.4,  -10.4,  -10.0,   -9.7,   -9.5,   -9.7,   -9.6,   -9.4,   -9.1,   -8.7,   -8.6,   -8.4,   -7.9,   -7.5,   -7.1,   -7.2,   -7.7,   -8.2,   -9.0,   -9.3,   -9.4,   -9.3,  999.0,   -9.1
2010/03/01 01:20,  -13.0,  -18.9,   -3.1,   -3.0,   -2.5,   -3.0,   -3.5,   -9.2,  999.0,   -3.1,  -17.0,  -18.9,    3.4,   -7.3,    5.2,    5.3,    3.8,    4.7,    5.7,    4.3,    3.6,    3.5,    3.0,    3.8,    3.9,    3.2,    2.6,    1.6,    1.5,   -0.3,    0.0,   -0.1,   -1.7,   -1.7,   -1.3,   -0.3,  999.0,    1.2,    0.3,   -0.3,   -1.0,   -2.6,   -2.6,   -3.7,   -3.4,  999.0,   -4.3,   -5.5,   -6.4,   -6.1,   -5.8,   -6.2,   -4.7,   -5.0,   -7.4,   -5.4,   -5.6,   -5.4,   -5.2,   -5.7,   -5.4,   -5.2,   -5.8,   -5.1,   -6.1,   -6.1,   -6.5,   -6.9,   -6.4,   -7.5,   -8.1,   -8.5,   -9.3,   -9.7,   -9.9,  -10.4,  -10.8,  -11.1,  -11.5,  -11.6,  -11.7,  -11.8,  -11.7,  -11.4,  -11.2,  -11.0,  -10.7,  -10.9,   -8.8,   -6.6,   -8.7,   -9.5,  999.0,  999.0,  999.0,  999.0,  999.0,  999.0
2010/03/01 01:30,    3.6,    3.3,    2.5,    2.1,    2.7,    2.8,    3.6,    2.5,    2.4,    3.2,    3.1,    2.1,    2.5,    5.2,    4.8,    5.0,    4.7,    3.4,    2.4,    2.0,    2.5,    2.3,    1.6,    0.4,    0.7,    0.7,    1.5,    0.1,   -1.3,   -1.8,   -0.3,    0.1,   -0.7,   -2.1,   -3.0,   -1.4,    2.1,   -2.8,    0.7,    2.8,    2.2,    4.3,    3.6,    0.9,   -3.1,  999.0,  999.0,   -2.0,   -1.5,   -3.3,   -3.2,   -3.9,   -3.2,   -3.5,   -2.2,   -1.8,   -2.8,   -2.1,   -2.7,   -3.7,   -4.3,   -4.2,   -4.0,   -3.9,   -4.9,   -6.9,   -6.5,   -6.1,   -5.1,   -7.2,   -5.9,   -5.7,   -5.9,   -6.4,   -7.2,  -11.9,  -10.7,  -11.4,  -12.9,  -13.2,  -12.8,   -9.0,  -11.0,  -12.5,  -13.0,  -13.6,  -12.5,  -11.7,  -11.0,  -10.0,   -7.9,   -7.4,   -4.7,   -7.5,  -10.5,   -8.6,  -14.5,  -13.4
2010/03/01 01:40,    1.1,    0.6,    0.9,    1.3,    0.7,    1.0,    2.2,    1.3,    1.9,    1.9,    1.3,    2.3,    3.0,    3.1,    4.0,    3.5,    2.4,    2.4,    2.7,    2.6,    2.2,    1.3,    2.2,    1.5,    2.1,    2.7,    1.4,    1.6,    2.0,    1.3,    0.3,    0.8,    0.5,   -1.3,   -1.5,   -1.6,   -2.5,   -3.8,   -1.0,   -0.1,   -1.5,    0.1,   -1.7,   -0.6,   -0.2,   -0.8,    1.2,    0.4,    0.1,   -1.9,   -1.9,   -3.1,   -3.0,   -2.4,   -2.8,   -3.7,   -3.9,   -4.1,   -3.2,   -4.9,   -5.0,   -5.2,   -4.6,   -6.3,   -7.1,   -6.4,   -6.0,   -6.1,   -6.4,   -6.7,   -7.2,   -6.2,  999.0,  999.0,   -3.0,   -7.7,  999.0,  -11.9,  -12.3,  -12.0,  -13.8,  -14.4,  -13.4,  -13.8,  -12.6,  -13.3,  -12.1,  -11.3,   -8.6,   -8.1,   -9.9,   -7.5,   -7.5,   -6.6,   -8.8,  -10.9,   -8.1,  -13.1
2010/03/01 01:50,    0.9,    0.1,   -0.4,   -0.4,   -0.2,   -9.5,  -13.5,  -12.8,  -10.2,  -11.9,  -12.5,   -5.2,   -4.5,   -9.4,  -12.9,   -7.1,   -9.9,   -5.5,  999.0,    9.2,   11.7,   29.6,   13.7,    6.6,    8.3,    0.0,    0.9,    2.2,    2.8,    3.6,    3.9,    4.8,    4.8,    4.7,    5.1,    4.8,    5.0,    0.9,    4.3,    3.4,    2.1,    4.9,    1.9,  999.0,   -1.0,   -1.0,    2.2,    2.1,   -0.4,  999.0,  999.0,    1.4,   -0.0,  999.0,  999.0,  999.0,  999.0,  999.0,  999.0,  999.0,  999.0,  999.0,  999.0,  999.0,   -2.7,   -4.3,  999.0,   -5.3,   -4.9,   -8.5,  -11.3,   -6.8,  999.0,  999.0,  -12.2,   -1.4,   -5.5,   -4.7,  999.0,   -6.7,   -4.0,  999.0,  -10.8,  999.0,  999.0,  -11.6,   -8.4,  -11.7,   -5.3,   -9.8,  -11.0,  -10.8,  -10.2,  -10.3,  -11.4,  -11.1,  -10.7,  -10.4
2010/03/01 02:00,    0.2,    1.2,    1.8,    2.1,    2.4,    2.5,    2.6,  -14.1,  -31.0,  -32.2,  -32.2,  -32.1,  -28.3,  -31.7,  999.0,  999.0,    1.3,    8.0,   12.9,    8.0,   11.8,   22.3,   13.4,    1.0,    0.7,   -0.6,   -0.6,   -0.7,   -1.9,   -0.5,  999.0,  999.0,  999.0,    0.1,    1.2,    1.0,    2.3,  999.0,  999.0,   -1.3,   -4.0,   -3.2,  999.0,    1.9,    3.4,    6.6,   13.6,    9.7,   15.7,    7.6,  999.0,  999.0,  999.0,    6.0,    3.8,    0.6,  999.0,    4.8,    3.2,  999.0,    2.7,    4.1,  999.0,    7.0,    5.8,    7.4,  999.0,  999.0,    8.4,    7.5,    6.1,    9.9,    9.0,  999.0,    9.6,    7.2,   12.4,    6.8,    8.4,    9.8,    9.1,    6.3,    7.8,  999.0,    7.6,    8.9,    5.3,   10.0,   10.3,    6.2,    7.0,  999.0,  999.0,    5.4,    0.4,    4.0,  999.0,    2.2
2010/03/01 02:10,   -0.7,   -3.3,   -3.9,   -1.5,   -9.6,  -15.2,  -24.3,  -23.0,  -19.4,  999.0,    8.8,   13.6,   10.4,   13.8,   16.2,   12.6,   12.5,   12.2,   18.6,   28.5,   28.7,   27.3,   25.8,    1.0,    1.1,   -1.7,   -2.9,   -3.3,   -3.3,   -3.2,   -4.2,   -3.8,   -4.0,   -4.3,   -3.1,   -2.8,   -2.2,   -2.7,   -2.2,   -2.1,   -1.5,   -2.5,   -0.7,    0.2,   -0.5,   -9.2,  999.0,  999.0,   -9.5,    1.0,  -10.3,    0.7,   -0.7,   -0.3,    1.0,  999.0,  999.0,    1.4,   -5.3,   -5.9,   -6.9,   -1.7,   -4.8,  999.0,   -6.3,  999.0,  999.0,   -1.3,  999.0,   -3.9,   -5.1,   -0.9,   -3.5,   -5.3,   -4.0,   -5.1,   -6.8,    3.7,   -2.5,    0.4,  999.0,   -0.4,   -1.0,   -0.2,  999.0,   -5.2,  -11.3,  999.0,  999.0,  999.0,   -8.5,   -6.3,  999.0,   -8.0,  -12.3,  -13.5,   -9.9,  999.0
2010/03/01 02:20,  -30.3,  -29.8,  -29.9,  -30.3,  -29.8,  -29.7,  -30.7,  -31.1,  999.0,  999.0,  999.0,  999.0,   12.9,    9.7,    9.5,    6.9,    6.9,    6.4,    6.0,    5.7,    6.2,    9.0,    9.5,    9.3,    7.6,    6.7,    5.6,    3.2,   -3.7,    4.1,   12.2,   18.7,   28.1,   18.6,   26.4,   24.8,   25.5,   14.2,   16.2,  999.0,   23.8,   22.5,   16.6,   22.2,  999.0,  999.0,  999.0,   -8.9,   -2.6,   -2.3,    3.0,    0.6,    1.7,    2.5,  999.0,  999.0,    8.8,  999.0,    0.9,  999.0,   -5.1,  999.0,  999.0,  999.0,   -2.7,   -2.3,   -3.7,   -3.0,   -4.2,   -5.9,   -5.5,   -6.6,   -6.3,   -7.4,   -6.9,   -7.5,   -6.9,   -6.4,   -8.3,   -6.6,   -6.8,   -5.6,   -6.2,  999.0,   -5.0,  999.0,   -5.0,  999.0,  999.0,   -7.0,   -5.1,   -6.8,   -7.1,   -5.6,   -6.4,   -5.4,  999.0,   -5.3
2010/03/01 02:30,    5.0,   -8.9,   -8.8,  -12.2,   -8.4,   -8.3,  -12.1,    4.4,    4.4,    4.4,    3.3,    2.9,    2.0,    0.9,    0.6,   -0.1,   -0.4,   -0.8,   -0.7,   -0.4,   -1.0,   -1.2,   -1.5,   -2.9,   -1.5,   -2.9,   -3.0,   -3.3,  999.0,  999.0,  999.0,  999.0,   22.5,   26.1,   27.4,   27.2,   26.9,   25.8,   26.3,   26.6,   27.1,   25.7,   24.7,  999.0,  999.0,  999.0,  999.0,   -8.4,  999.0,   -0.6,  999.0,   -4.1,   -2.9,   -7.4,   -7.1,   -6.3,   -7.2,   -5.7,   -7.3,   -3.9,   -7.1,   -7.1,   -7.1,   -5.8,   -6.2,   -6.0,   -5.3,   -6.5,   -7.1,   -5.5,   -7.1,   -5.8,   -6.9,   -6.2,  999.0,   -8.3,  999.0,   -7.7,   -9.2,   -8.3,  -11.0,   -9.7,  -10.2,   -7.2,   -8.5,   -7.8,   -8.2,  -10.2,   -7.5,   -6.3,   -4.6,   -4.8,  999.0,   -3.2,   -3.5,  999.0,   -1.7,   -2.5
2010/03/01 02:40,   -3.2,   -6.2,   -5.9,   -5.4,   -2.6,   -5.6,   -6.0,   -1.2,    2.3,    5.1,    4.5,    3.9,    3.2,    3.1,    1.9,    1.2,   -0.0,   -0.7,   -0.5,   -0.0,   -0.3,   -0.5,   -0.3,   -0.2,    0.2,    0.7,    1.6,    1.4,    1.1,   -1.2,   -2.2,   -3.0,   -4.2,  999.0,  999.0,    5.5,    5.7,    4.7,   10.0,    9.4,   -6.5,   -7.0,   -7.7,   -7.7,   -8.0,   -7.3,   -7.2,  999.0,   -7.0,   -6.6,   -6.5,   -4.8,   -3.9,   -4.4,   -3.8,   -5.8,   -4.9,   -4.5,   -6.0,   -6.9,   -6.7,   -6.7,   -5.9,   -7.2,   -6.3,   -6.5,   -6.6,  999.0,   -6.6,   -5.9,   -5.4,   -6.2,   -7.4,   -9.7,  -10.4,   -8.0,   -5.5,   -7.8,   -3.5,   -5.7,   -5.9,   -4.9,  999.0,   -5.0,   -5.0,   -4.2,   -3.8,   -3.7,   -2.7,   -4.4,   -4.0,   -3.5,   -3.5,   -1.5,   -1.6,   -0.5,   -0.7,   -0.4
2010/03/01 02:50,    5.9,    6.2,    6.5,    6.1,    6.1,    6.1,    6.3,    6.7,    6.3,    5.9,    5.3,    4.5,    4.8,    4.1,    2.1,    1.7,    0.7,    0.2,   -0.9,   -0.1,   -0.5,    0.7,    0.6,    1.2,   -0.1,   -1.0,   -0.7,   -0.4,   -1.2,   -0.9,   -0.6,   -2.7,   -3.7,   -3.9,   -5.0,   -5.4,   -7.8,   -5.3,   -6.8,   -7.7,   -5.0,   -4.3,   -7.0,   -6.6,   -7.5,   -7.4,   -7.6,   -7.3,   -9.2,   -8.4,   -8.4,   -7.0,   -7.7,   -7.3,   -8.5,   -7.4,   -8.0,   -8.0,   -8.2,   -8.1,   -8.4,   -7.7,   -8.2,   -8.5,   -8.3,   -8.3,   -8.4,   -7.7,   -7.7,   -6.9,   -7.4,   -6.9,   -8.1,   -6.3,   -5.8,   -5.9,   -6.4,   -5.8,   -6.1,   -6.6,   -5.5,   -5.3,   -6.9,   -6.0,   -5.8,   -6.0,   -6.2,   -6.2,   -6.3,   -6.2,   -6.0,   -5.9,   -4.8,   -4.1,   -3.1,   -2.3,   -1.2,   -0.4
2010/03/01 03:00,    4.9,    3.9,    4.1,    5.1,    5.3,    4.7,    5.7,    6.0,    5.0,    4.3,    4.0,    3.8,    4.8,    3.4,    2.5,    2.0,    1.7,    1.6,   -0.3,   -0.6,   -0.7,   -1.6,  999.0,  999.0,   -0.5,   -0.6,   -1.5,   -2.4,   -2.7,   -2.5,   -2.3,   -2.8,   -2.3,   -3.7,   -5.3,  999.0,  999.0,   -5.5,  999.0,  999.0,  999.0,  999.0,  999.0,   -4.1,   -8.1,  999.0,  999.0,   -6.9,   -5.9,   -5.8,   -6.3,   -6.9,   -6.2,   -7.5,   -7.7,   -7.8,   -8.5,   -9.2,   -9.8,  -10.6,  -10.8,  -10.6,  -11.0,  -10.7,  -10.5,  -10.5,  -11.0,  -10.5,  -10.1,   -9.5,   -9.0,   -8.4,   -8.2,   -8.0,   -7.9,   -7.7,   -7.4,   -7.0,   -6.7,   -6.9,   -7.1,   -7.6,   -8.1,   -8.5,   -8.7,   -9.4,   -9.6,   -9.6,   -9.5,   -9.1,   -9.1,   -9.1,   -8.9,   -8.6,   -8.0,   -7.6,   -6.6,   -5.9
2010/03/01 03:10,    4.3,    4.9,    5.4,    5.9,    6.4,    6.5,    6.2,    6.3,    5.6,    5.4,    6.1,    5.9,    4.4,    3.7,    2.9,    1.5,    1.3,    0.9,    0.1,   -0.1,   -1.4,   -1.1,   -1.0,   -0.8,    0.4,   -0.0,   -0.1,   -0.8,   -0.4,   -5.4,  999.0,   -6.5,   -7.5,  999.0,  999.0,  999.0,   -5.8,   -4.8,  999.0,   -6.3,  999.0,  999.0,  999.0,  999.0,   -2.9,  999.0,  999.0,  999.0,  999.0,   -1.8,   -3.8,   -3.1,   -4.4,   -3.2,  999.0,   -6.4,   -7.9,   -7.5,   -8.6,   -8.1,   -8.0,   -9.0,  -10.0,   -9.9,   -9.5,   -9.1,   -8.6,   -8.1,   -7.4,   -6.9,   -6.3,   -6.5,   -6.5,   -6.5,   -6.5,   -6.4,   -6.1,   -5.9,   -5.9,   -5.9,   -5.9,   -6.2,   -6.6,   -6.9,   -7.1,   -7.6,   -8.2,   -8.8,   -9.3,   -9.9,  -10.0,   -9.9,   -9.7,   -9.0,   -8.4,   -7.5,   -6.4,   -5.3
2010/03/01 03:20,    5.1,    5.8,    6.8,    7.5,    7.9,  999.0,  999.0,    6.2,    5.9,    4.6,    4.6,    5.1,    3.7,    2.7,    3.1,    2.6,    2.1,    1.4,    0.3,   -0.3,   -1.9,   -2.1,   -1.6,   -0.7,    0.4,    0.3,   -0.5,   -2.1,  999.0,  999.0,  999.0,  999.0,  999.0,  999.0,  999.0,  999.0,   -5.2,  999.0,  999.0,  999.0,  999.0,  999.0,  999.0,   -6.5,   -5.3,   -5.0,   -5.1,   -4.5,   -3.7,   -4.2,   -7.1,   -7.5,   -6.6,   -8.1,  999.0,  -10.2,  999.0,  999.0,  999.0,  999.0,  999.0,  999.0,  999.0,  999.0,  999.0,  999.0,  999.0,   -9.5,  -10.0,  -10.2,  -11.8,  -10.6,  -10.3,   -9.3,   -8.2,   -7.8,   -7.4,   -7.8,   -7.1,   -6.7,   -6.5,   -6.2,   -5.7,   -5.9,   -6.0,   -6.2,   -6.5,   -7.0,   -7.6,   -8.4,   -9.1,   -8.9,   -9.5,   -9.2,   -9.4,   -8.9,   -8.3,   -7.6
2010/03/01 03:30,  999.0,    9.4,    9.5,   10.6,    9.7,    9.8,    8.3,    7.5,    6.5,    7.9,    5.8,    3.5,    4.0,    3.7,    3.5,    2.4,    2.8,    1.3,    0.5,    0.5,   -0.2,   -0.1,   -0.7,   -0.8,   -0.6,   -0.1,    0.7,    1.0,   -3.9,   -5.9,   -4.6,   -3.3,   -1.5,  999.0,   -4.6,   -2.2,   -2.2,   -2.4,   -2.8,   -4.3,   -5.1,   -4.1,   -3.4,   -3.9,   -4.1,   -4.0,   -3.6,   -5.3,   -5.9,   -6.5,   -5.6,   -7.0,   -6.8,   -9.3,  -11.3,  999.0,  999.0,  999.0,  999.0,  999.0,  999.0,  999.0,  999.0,  999.0,   -9.9,  -10.6,  999.0,   -9.8,  999.0,  999.0,  -10.3,  999.0,  999.0,  999.0,  999.0,  999.0,  999.0,  999.0,  999.0,   -9.6,   -8.2,   -7.1,   -6.3,   -6.2,   -6.2,   -6.4,   -6.9,   -7.2,   -8.0,   -8.8,   -9.3,   -9.4,   -9.2,   -8.8,   -9.3,  -10.0,  -10.6,  -10.3
2010/03/01 03:40,    5.3,    6.5,    7.2,    8.4,    8.7,    8.6,    6.9,    7.4,    7.1,    6.6,    6.8,    6.4,    5.1,    4.2,    3.1,    3.4,    1.8,    4.3,    3.6,    1.9,    0.8,    0.9,    0.8,    2.8,    3.8,    2.5,  999.0,    3.2,  999.0,  999.0,   -0.7,    0.9,   -0.9,   -2.4,   -3.7,   -1.3,   -1.1,  999.0,  999.0,    0.6,    0.5,   -0.8,   -0.6,   -1.7,   -1.8,   -0.7,   -2.1,   -3.4,   -2.5,   -1.7,   -1.2,   -3.5,   -4.0,   -4.5,   -5.0,   -6.6,  999.0,  999.0,  999.0,  999.0,  999.0,  -10.6,  -10.5,  999.0,  999.0,  -12.7,  999.0,  999.0,  999.0,  999.0,  999.0,  999.0,  999.0,  999.0,  999.0,  999.0,  999.0,  999.0,  999.0,   -9.0,   -8.5,   -7.4,   -6.8,   -6.2,   -6.5,   -7.1,   -7.6,   -8.1,   -8.6,   -8.8,   -8.7,   -7.9,   -7.4,   -7.9,   -9.0,   -9.9,  -10.1,  999.0
2010/03/01 03:50,    5.6,    5.0,    5.5,    5.6,    5.7,    4.7,    7.4,    5.3,    6.4,    6.3,    6.6,    8.8,    7.3,  999.0,  999.0,  999.0,  999.0,  999.0,  999.0,  999.0,  999.0,  999.0,  999.0,  999.0,   -1.7,   -2.3,   -3.0,   -2.5,   -1.6,  999.0,   -2.1,   -2.5,   -1.8,   -3.1,   -3.4,   -3.0,   -4.0,   -5.7,   -5.3,  999.0,   -2.9,   -3.1,   -2.3,   -1.4,   -2.2,   -3.4,   -3.6,   -3.2,   -3.7,   -4.3,   -4.2,   -4.6,   -5.2,   -5.5,   -5.8,   -6.5,   -7.3,  999.0,  999.0,  999.0,  999.0,  999.0,  999.0,  999.0,  -10.4,  999.0,  999.0,  999.0,   -9.5,  -10.4,  999.0,  999.0,  999.0,  999.0,  999.0,  999.0,  999.0,  999.0,  999.0,  999.0,  999.0,  999.0,  999.0,   -7.0,   -7.0,   -7.5,   -7.8,   -7.7,   -7.8,   -7.5,   -6.4,   -5.8,  999.0,  999.0,   -7.3,   -7.9,  999.0,  999.0
2010/03/01 04:00,  999.0,  999.0,  999.0,  999.0,  999.0,  999.0,  999.0,  999.0,    8.5,  999.0,  999.0,  999.0,  999.0,  999.0,  999.0,  999.0,    0.7,    0.6,    1.1,    0.3,   -0.1,   -0.8,   -1.2,   -1.9,   -3.0,   -4.4,   -4.2,   -4.3,   -4.2,   -4.1,   -4.0,   -4.3,   -4.8,   -5.6,   -6.5,   -6.3,   -6.5,   -6.6,   -6.5,   -5.6,   -4.8,   -5.9,   -5.4,   -2.3,  999.0,   -3.2,   -3.9,   -4.2,   -4.8,   -5.0,   -4.8,   -5.0,   -4.8,   -5.2,   -5.8,   -6.3,  999.0,  999.0,  999.0,  999.0,  999.0,  999.0,  999.0,  -10.1,  -11.0,  999.0,  -12.2,  999.0,  999.0,  -10.4,  -10.6,  999.0,  999.0,  999.0,  999.0,  999.0,  999.0,  999.0,  999.0,  999.0,  999.0,  999.0,  999.0,  999.0,  999.0,  999.0,  999.0,  999.0,  999.0,  999.0,  999.0,  999.0,  999.0,  999.0,  999.0,  999.0,  999.0,  999.0
2010/03/01 04:10,    3.0,    4.5,    5.1,    5.8,    6.4,    7.3,    7.9,    7.3,    6.3,    2.2,    2.5,    1.3,    4.0,    1.0,    1.4,  999.0,    1.4,   -0.7,    0.6,   -1.0,   -1.8,   -3.0,   -3.5,   -3.4,   -4.8,   -5.7,   -6.5,   -7.0,   -7.3,   -7.1,   -6.7,   -6.9,   -5.2,   -4.6,   -4.2,   -5.4,   -6.1,   -6.9,   -8.1,   -7.5,   -9.0,   -8.3,  -10.2,   -8.3,   -8.2,   -5.5,   -7.1,   -8.5,   -7.9,   -6.2,   -6.1,   -5.1,   -5.5,   -6.7,   -7.9,   -8.1,   -9.1,   -9.3,  999.0,  999.0,  999.0,  999.0,  999.0,  -10.3,  -10.0,  -11.3,  999.0,  -12.1,  -11.3,  -11.0,  999.0,  999.0,  999.0,  999.0,  999.0,  999.0,  999.0,  999.0,  999.0,  999.0,  999.0,  999.0,  999.0,  999.0,  999.0,  999.0,  999.0,  999.0,  999.0,  999.0,  999.0,  999.0,  999.0,  999.0,  999.0,  999.0,  999.0,  999.0
2010/03/01 04:20,    4.1,    4.5,    3.6,    4.1,    4.5,    5.6,    6.5,    4.5,    5.9,    6.0,    4.7,    5.3,    5.4,    4.6,    4.0,    3.6,    3.8,    3.6,    2.4,    1.7,    1.6,    0.5,    0.2,   -0.0,   -0.3,   -0.5,    0.2,   -0.3,    0.1,    1.1,    1.7,    2.1,    2.2,    0.9,   -2.1,   -2.7,   -1.7,    3.2,    0.7,   -1.2,   -1.2,   -2.4,   -2.9,   -1.1,    0.8,    0.2,   -1.2,   -1.6,   -4.5,   -4.1,   -3.4,   -3.0,   -3.8,   -5.1,   -5.3,   -6.4,   -6.6,  999.0,  999.0,  999.0,  999.0,  999.0,  999.0,   -8.3,   -9.3,  999.0,  999.0,  999.0,  999.0,  -12.2,  999.0,  999.0,  999.0,  999.0,  999.0,  999.0,  999.0,  999.0,  999.0,  999.0,  999.0,  999.0,  999.0,  999.0,  999.0,   -6.3,   -6.1,   -5.3,   -4.8,   -4.6,   -4.8,   -5.4,   -6.2,   -6.3,   -6.2,   -5.9,   -6.2,   -6.7
2010/03/01 04:30,  999.0,    3.8,    4.0,    5.5,    6.1,    6.6,    6.6,    6.0,    6.2,    6.5,    5.8,    5.7,    5.2,    5.1,    2.9,    2.4,    3.3,  999.0,  999.0,  999.0,   -0.7,  999.0,  999.0,  999.0,    0.6,  999.0,    1.8,  999.0,  999.0,    0.6,   -1.0,   -0.8,  999.0,  999.0,  999.0,  999.0,  999.0,  999.0,  999.0,   -3.3,   -3.9,   -2.7,   -3.4,   -3.4,   -2.1,   -1.0,   -1.9,   -2.1,   -1.8,   -1.3,  999.0,   -1.9,   -2.8,   -3.7,   -5.1,  999.0,  999.0,  999.0,  999.0,  999.0,  999.0,  999.0,  999.0,  999.0,  999.0,  999.0,  999.0,  999.0,  999.0,  999.0,  999.0,  999.0,  999.0,  999.0,  999.0,  999.0,  999.0,  999.0,  999.0,  999.0,  999.0,  999.0,  999.0,  999.0,  999.0,  999.0,   -6.1,   -5.5,   -5.0,   -3.9,   -5.0,   -5.3,   -5.8,   -5.9,   -5.4,   -5.5,   -5.8,  999.0
2010/03/01 04:40,    1.6,    2.2,    2.7,    3.3,    4.6,    5.3,    5.7,  999.0,    5.1,    4.4,    3.8,    3.0,    3.4,    3.8,    3.1,    3.1,    2.9,    2.3,    1.5,   -0.1,   -0.2,   -1.6,   -2.0,   -1.6,  999.0,  999.0,  999.0,   -2.9,   -2.7,   -2.2,   -1.8,   -1.4,   -1.1,   -1.4,   -2.2,   -2.5,   -3.4,  999.0,   -3.1,  999.0,   -4.5,   -4.8,  999.0,   -4.0,   -3.7,   -3.2,   -2.9,   -2.5,   -2.3,  999.0,  999.0,   -2.9,   -3.8,   -4.9,   -6.3,  999.0,  999.0,  999.0,  -10.4,  -10.2,  999.0,  999.0,  999.0,  999.0,  999.0,  999.0,  999.0,  999.0,  999.0,  999.0,  999.0,  999.0,  999.0,  999.0,  999.0,  999.0,  999.0,  999.0,  999.0,  999.0,  999.0,  999.0,  999.0,  999.0,  999.0,  999.0,  999.0,  999.0,  999.0,  999.0,  999.0,  999.0,   -4.7,  999.0,  999.0,  999.0,  999.0,  999.0
2010/03/01 04:50,    0.9,    1.7,  999.0,    4.0,    4.4,    5.3,    5.8,    6.0,    5.6,    3.9,    3.8,    2.9,    3.5,    3.3,    3.0,    3.4,    2.9,  999.0,    0.7,   -0.2,   -1.2,   -1.4,   -1.2,   -1.0,   -1.2,   -1.7,  999.0,   -2.6,   -2.6,   -2.6,   -2.2,   -1.3,   -1.1,   -1.7,   -1.5,   -2.1,   -3.0,  999.0,  999.0,  999.0,  999.0,   -5.3,  999.0,   -5.5,   -5.0,   -4.6,   -4.0,   -3.8,   -3.9,   -3.0,   -4.0,   -3.9,   -4.8,   -5.6,   -6.2,   -7.7,  999.0,  999.0,  999.0,  999.0,  999.0,  999.0,  999.0,  999.0,  999.0,  999.0,  999.0,  999.0,  999.0,  999.0,  999.0,  999.0,  999.0,  999.0,  999.0,  999.0,  999.0,  999.0,  999.0,  999.0,  999.0,  999.0,  999.0,  999.0,  999.0,  999.0,  999.0,  999.0,  999.0,  999.0,  999.0,  999.0,  999.0,  999.0,  999.0,  999.0,  999.0,  999.0
2010/03/01 05:00,  999.0,  999.0,    1.6,    2.8,    3.5,    4.3,    5.0,  999.0,  999.0,  999.0,    3.4,    3.3,    3.5,    3.7,    3.7,    3.4,    3.3,    3.0,    2.5,    0.7,   -0.1,   -0.6,   -1.0,   -1.1,   -1.3,   -1.0,   -1.1,   -1.0,   -0.9,   -1.0,   -1.2,  999.0,   -0.9,   -0.5,   -0.2,   -0.4,   -1.5,   -2.2,  999.0,   -2.9,  999.0,   -3.6,   -4.1,   -4.1,   -4.2,  999.0,  999.0,  999.0,   -3.1,   -3.5,   -3.7,   -4.6,   -5.8,  999.0,  999.0,  999.0,  999.0,  999.0,  999.0,  999.0,  999.0,  999.0,  999.0,  999.0,  999.0,  999.0,  999.0,  999.0,  999.0,  999.0,  999.0,  999.0,  999.0,  999.0,  999.0,  999.0,  999.0,  999.0,  999.0,  999.0,  999.0,  999.0,  999.0,  999.0,  999.0,  999.0,  999.0,  999.0,  999.0,  999.0,  999.0,  999.0,  999.0,  999.0,  999.0,  999.0,  999.0,  999.0
2010/03/01 05:10,  999.0,  999.0,    2.2,    2.9,    3.9,    4.3,  999.0,    6.3,  999.0,    5.4,    3.3,    3.0,    3.1,    3.6,    3.8,    3.0,    3.1,    2.6,    2.4,  999.0,  999.0,    0.7,    0.2,   -0.5,   -0.6,   -0.7,   -0.8,   -0.8,   -0.4,   -0.7,   -0.8,   -1.1,   -1.2,   -1.5,  999.0,  999.0,  999.0,   -1.0,   -2.0,  999.0,  999.0,   -3.3,   -4.3,  999.0,  999.0,   -4.3,   -3.7,   -3.8,   -3.4,   -3.3,   -3.3,   -4.5,   -5.9,  999.0,  999.0,  999.0,  999.0,  999.0,   -8.0,   -9.3,  -10.0,  999.0,  999.0,  999.0,  999.0,  999.0,  999.0,  999.0,  999.0,  999.0,  999.0,  999.0,  999.0,  999.0,  999.0,  999.0,  999.0,  999.0,  999.0,  999.0,  999.0,  999.0,  999.0,  999.0,  999.0,  999.0,  999.0,  999.0,  999.0,  999.0,  999.0,  999.0,  999.0,  999.0,  999.0,  999.0,  999.0,  999.0
2010/03/01 05:20,  999.0,  999.0,  999.0,  999.0,  999.0,  999.0,    5.3,    5.3,    5.1,    5.2,    3.1,  999.0,    2.3,    3.0,    3.4,    3.6,  999.0,    3.5,    3.1,  999.0,    2.6,  999.0,    1.0,    0.9,    0.3,    0.2,    0.4,    0.4,    0.3,    0.6,    0.1,  999.0,   -0.7,  999.0,    0.8,  999.0,   -0.2,   -1.1,  999.0,  999.0,  999.0,  999.0,  999.0,  999.0,   -4.5,   -4.7,   -4.2,   -4.4,   -3.6,   -4.3,   -5.0,   -5.9,   -6.3,  999.0,  999.0,  999.0,  999.0,  999.0,  999.0,  -10.1,  999.0,  999.0,  999.0,  999.0,  999.0,  999.0,  999.0,  999.0,  999.0,  999.0,  999.0,  999.0,  999.0,  999.0,  999.0,  999.0,  999.0,  999.0,  999.0,  999.0,  999.0,  999.0,  999.0,  999.0,  999.0,  999.0,  999.0,  999.0,   -5.2,   -5.8,   -5.7,  999.0,   -4.2,  999.0,  999.0,   -4.4,  999.0,  999.0
2010/03/01 05:30,  999.0,  999.0,  999.0,  999.0,  999.0,  999.0,  999.0,    4.7,    4.9,    3.7,    3.1,  999.0,  999.0,    3.8,    3.3,    3.7,    2.8,    3.3,    3.4,    3.1,    2.7,  999.0,  999.0,    1.2,    0.8,    0.4,    0.5,    0.9,    1.1,    1.4,    0.7,  999.0,    0.2,  999.0,    1.3,    1.1,    0.0,   -1.1,  999.0,  999.0,   -2.9,   -3.9,  999.0,   -3.9,  999.0,   -3.9,   -3.6,   -3.9,   -4.2,   -4.5,   -4.7,   -5.0,   -5.2,   -6.6,  999.0,  999.0,   -8.7,   -8.1,   -8.6,   -9.8,  -10.4,  999.0,  999.0,  999.0,  999.0,  999.0,  999.0,  999.0,  999.0,  999.0,  999.0,  999.0,  999.0,  999.0,  999.0,  999.0,  999.0,  999.0,  999.0,  999.0,  999.0,  999.0,  999.0,  999.0,  999.0,  999.0,  999.0,   -4.7,  999.0,   -5.6,   -4.6,   -5.0,   -5.4,   -5.5,   -5.2,   -5.0,   -5.1,   -5.6
2010/03/01 05:40,  999.0,  999.0,  999.0,  999.0,  999.0,  999.0,  999.0,    4.9,    5.2,    4.5,    4.2,    3.9,  999.0,  999.0,    3.9,  999.0,    2.6,    2.8,    2.7,    2.2,    2.1,  999.0,    1.1,    0.6,    0.5,    0.4,    0.8,    1.3,    1.1,    1.3,  999.0,   -0.5,    0.1,    0.6,    0.7,   -0.2,  999.0,  999.0,  999.0,  999.0,   -4.4,  999.0,  999.0,  999.0,   -4.1,  999.0,   -4.2,   -5.0,   -5.2,   -5.0,   -5.7,   -5.7,   -6.6,  999.0,  999.0,  999.0,  999.0,  999.0,  999.0,  999.0,  999.0,  999.0,  999.0,  999.0,  999.0,  999.0,  999.0,  999.0,  999.0,  -12.4,  999.0,  999.0,  999.0,  999.0,  999.0,  999.0,  999.0,  999.0,  999.0,  999.0,  999.0,  999.0,  999.0,  999.0,  999.0,   -5.0,   -5.0,   -5.4,   -6.0,   -5.8,   -6.6,   -6.8,   -7.0,   -6.9,   -6.7,   -6.5,   -6.8,   -7.3
2010/03/01 05:50,  999.0,  999.0,  999.0,  999.0,    4.1,    4.3,    4.1,    4.5,    4.9,    4.7,    4.3,    3.7,    3.3,    3.4,    3.1,    2.6,    2.4,    2.3,    2.0,    2.3,    1.8,  999.0,    1.1,    0.4,    0.3,    1.1,    1.8,    1.2,    1.4,  999.0,   -0.0,    0.3,    1.1,    1.3,    1.2,    1.1,    0.3,    0.9,  999.0,  999.0,  999.0,  999.0,  999.0,   -2.3,   -3.5,   -3.6,   -4.0,   -4.4,   -4.2,   -4.9,   -5.4,   -6.0,   -7.2,  999.0,  999.0,  999.0,  999.0,  999.0,  999.0,  999.0,  999.0,  999.0,  999.0,  999.0,  999.0,  999.0,  999.0,  999.0,  999.0,  999.0,  999.0,  999.0,  999.0,  999.0,  999.0,  999.0,  999.0,   -8.8,   -9.0,   -8.4,   -7.2,   -6.9,   -6.0,   -6.1,   -5.9,   -5.6,   -5.6,   -6.6,   -7.2,   -7.5,   -7.4,   -7.4,   -7.1,   -6.9,   -6.5,   -6.2,   -6.3,   -6.8
2010/03/01 06:00,  999.0,  999.0,  999.0,    4.0,    4.1,    4.4,    4.2,    4.3,    4.7,    4.7,    4.1,    4.2,    4.1,    3.7,    2.9,    2.5,    1.7,    1.4,    1.3,    1.3,    1.2,    0.8,    0.4,   -0.3,    0.6,    1.5,    1.1,    1.3,  999.0,  999.0,  999.0,  999.0,    1.0,  999.0,  999.0,  999.0,  999.0,    0.4,  999.0,  999.0,  999.0,  999.0,  999.0,  999.0,  999.0,   -3.1,   -3.6,   -4.2,   -4.7,   -5.3,   -5.2,   -5.8,   -7.3,  999.0,  999.0,  999.0,  999.0,  999.0,  999.0,  999.0,  999.0,  999.0,  999.0,  999.0,  999.0,  999.0,  999.0,  999.0,  999.0,  999.0,  999.0,  999.0,  999.0,  999.0,  999.0,  999.0,  999.0,   -9.6,   -8.8,   -8.8,   -8.8,   -8.3,   -7.9,   -7.7,   -8.0,   -8.4,   -8.7,   -8.4,   -8.0,   -7.7,   -7.8,   -7.9,   -8.0,   -8.4,   -9.1,   -8.1,   -6.6,   -6.8
2010/03/01 06:10,  999.0,  999.0,  999.0,    3.5,    4.2,    4.6,    4.4,    4.6,    4.5,    3.9,    3.9,    4.4,    3.9,    3.6,    3.2,    2.6,    1.4,    0.8,    0.5,    1.0,    0.6,    0.2,   -0.3,    0.3,    1.3,    1.7,    1.3,    2.3,  999.0,    2.4,  999.0,    2.5,  999.0,  999.0,  999.0,  999.0,  999.0,    1.1,  999.0,  999.0,  999.0,   -0.9,   -1.6,  999.0,   -2.7,   -3.4,   -3.6,   -4.4,   -4.7,   -5.0,   -6.0,   -6.6,  999.0,  999.0,  999.0,  999.0,  999.0,  999.0,  999.0,  999.0,  999.0,  -10.3,  999.0,  999.0,  999.0,  999.0,  999.0,  999.0,  999.0,  999.0,  999.0,  999.0,  999.0,  999.0,  999.0,  999.0,  999.0,  999.0,  999.0,  999.0,  -11.4,  -11.2,   -9.8,   -9.0,   -8.3,   -7.8,   -7.6,   -7.5,   -7.6,   -7.6,   -8.1,   -8.7,   -9.1,   -9.5,   -9.7,  999.0,  999.0,  999.0
2010/03/01 06:20,  999.0,    3.2,    3.7,    4.1,    4.6,    4.4,    4.6,    4.5,    4.4,    3.9,    3.6,  999.0,    3.3,    2.8,    2.2,    1.9,    0.4,   -0.2,   -0.0,    0.4,    0.2,   -0.5,   -1.2,   -0.4,    1.0,    1.2,    1.1,    1.6,    2.3,    2.4,    2.4,    1.9,    1.2,  999.0,    0.7,    1.0,  999.0,  999.0,   -0.1,  999.0,  999.0,   -2.2,   -2.8,   -3.7,   -3.7,   -3.9,   -4.3,   -4.8,  999.0,   -5.8,   -7.3,  999.0,  999.0,  999.0,  999.0,  999.0,  999.0,  999.0,  999.0,  999.0,  999.0,   -9.6,  -10.9,  999.0,  999.0,  999.0,  999.0,  999.0,  999.0,  999.0,  999.0,  999.0,  999.0,  999.0,  999.0,  999.0,  999.0,  999.0,  999.0,  999.0,  999.0,  999.0,  -11.4,  -10.5,  -10.2,   -9.0,   -7.8,   -6.8,   -6.7,   -7.2,   -7.8,   -8.5,   -8.9,   -9.4,   -9.4,   -9.5,  999.0,  999.0
2010/03/01 06:30,  999.0,    2.6,  999.0,    4.3,    4.4,    4.4,    4.5,    4.7,    4.7,    4.7,    5.1,    4.7,    3.7,    2.6,    1.7,    1.3,    0.3,   -0.5,    0.2,    0.5,    0.0,  999.0,   -0.5,    0.0,    0.8,    1.0,    1.1,    1.8,    2.1,    2.5,  999.0,  999.0,  999.0,    1.4,    1.2,    1.0,  999.0,    0.2,  999.0,  999.0,  999.0,   -2.6,   -2.9,  999.0,   -3.6,   -4.1,   -4.4,   -5.5,   -6.2,  999.0,   -6.7,   -7.9,  999.0,  999.0,  999.0,  999.0,  999.0,  999.0,  999.0,  999.0,   -8.3,   -9.3,  999.0,  999.0,  999.0,  999.0,  999.0,  999.0,  999.0,  999.0,  999.0,  999.0,  999.0,  999.0,  999.0,  999.0,  999.0,  999.0,  999.0,  999.0,  999.0,  999.0,  999.0,  999.0,  -10.7,  -11.4,  -10.5,   -9.8,   -9.0,   -8.0,   -8.2,   -8.8,   -9.4,   -9.7,   -9.9,   -9.7,  999.0,  999.0
2010/03/01 06:40,  999.0,  999.0,    3.2,    4.1,    4.1,    4.4,    4.5,    4.8,    4.2,    4.5,    4.5,    4.8,    4.6,    3.9,    2.7,    1.8,    1.0,   -0.3,   -0.6,   -0.2,   -0.2,   -0.5,  999.0,    0.2,   -0.1,    0.5,    0.6,    1.8,    2.6,    3.2,    3.0,    2.7,    2.6,    2.1,    1.4,  999.0,    0.8,    0.5,   -1.3,  999.0,  999.0,   -3.3,  999.0,   -2.8,   -3.7,   -3.9,   -4.9,   -6.3,  999.0,  999.0,  999.0,   -7.3,   -8.1,  999.0,  999.0,  999.0,  999.0,   -8.4,   -8.9,  999.0,  999.0,  999.0,  999.0,  999.0,  999.0,  999.0,  999.0,  999.0,  999.0,  999.0,  999.0,  999.0,  999.0,  999.0,  999.0,  999.0,  999.0,  999.0,  999.0,  999.0,  999.0,  999.0,  999.0,  999.0,  999.0,  999.0,  999.0,  -10.9,  -11.0,  -11.1,  999.0,  -11.3,  -10.3,  -10.3,  -10.2,  999.0,  999.0,  999.0
2010/03/01 06:50,  999.0,  999.0,    3.5,    4.3,    4.3,    5.0,    5.4,    5.6,    4.6,    4.5,    4.7,    4.6,    4.9,    4.6,    4.1,    3.4,    2.2,    1.5,    0.8,    0.2,   -0.2,   -0.6,   -0.9,  999.0,  999.0,  999.0,    0.6,    1.1,    2.1,    2.7,    2.8,    2.5,    1.8,    1.9,    1.6,    1.3,  999.0,    0.1,   -1.1,  999.0,   -2.8,   -2.9,  999.0,  999.0,   -3.5,   -4.4,   -5.0,  999.0,  999.0,  999.0,   -5.4,   -6.8,   -8.0,  999.0,   -9.1,  999.0,  999.0,  999.0,  999.0,  999.0,  999.0,  999.0,  999.0,  999.0,  999.0,  999.0,  999.0,  999.0,  999.0,  999.0,  999.0,  999.0,  999.0,  999.0,  999.0,  999.0,  999.0,  999.0,  999.0,  999.0,  999.0,  999.0,  999.0,  999.0,  999.0,  -10.7,  999.0,  999.0,  -10.6,  -11.1,  999.0,  999.0,  999.0,  -10.4,  -10.4,  999.0,  999.0,  999.0
2010/03/01 07:00,  999.0,  999.0,    2.7,    3.9,    4.4,    4.8,    5.1,    4.4,    4.2,    4.4,    5.0,    5.2,    5.3,    4.9,    4.2,    3.6,    3.0,    2.4,    1.8,    1.0,    0.9,   -0.1,  999.0,  999.0,   -1.0,   -0.1,   -0.1,    0.7,    1.8,    1.9,  999.0,  999.0,    1.6,    1.9,    1.9,    1.4,    1.2,  999.0,  999.0,  999.0,  999.0,  999.0,  999.0,  999.0,   -2.9,   -3.6,   -4.3,   -4.7,   -5.3,   -4.2,   -5.5,   -6.8,   -7.8,   -9.1,   -8.5,  999.0,  999.0,   -8.2,   -8.5,  999.0,  999.0,  999.0,  999.0,  999.0,  999.0,  999.0,  999.0,  999.0,  999.0,  999.0,  999.0,  999.0,  999.0,  999.0,  999.0,  999.0,  999.0,  999.0,  999.0,  999.0,  999.0,  -12.0,  -11.5,  -11.3,  -10.8,  -10.6,  -10.6,  -10.3,  -10.4,  -10.7,  -10.5,  -10.2,  -10.2,  -10.6,  -10.4,  -10.7,  999.0,  999.0
2010/03/01 07:10,  999.0,  999.0,    1.7,    4.0,    4.4,    4.8,    5.1,    5.0,    4.6,    4.7,    5.0,    4.7,    4.4,    4.4,    3.9,    3.4,    2.6,    1.9,    1.3,    0.7,    0.2,   -0.9,   -1.1,  999.0,   -0.7,   -0.8,   -0.8,   -0.1,    0.7,    0.5,    0.9,    1.2,  999.0,  999.0,  999.0,  999.0,  999.0,  999.0,  999.0,  999.0,  999.0,  999.0,   -2.6,   -2.3,   -2.8,   -3.5,   -3.9,   -4.3,   -4.4,   -4.7,   -4.9,   -6.0,   -7.2,   -8.1,   -8.3,   -8.3,   -8.3,   -8.4,   -8.9,  999.0,  999.0,  999.0,  999.0,  999.0,  999.0,  999.0,  999.0,  999.0,  999.0,  999.0,  999.0,  999.0,  999.0,  999.0,  999.0,  999.0,  999.0,  999.0,  999.0,  999.0,  999.0,  -11.8,  -11.6,  999.0,  -10.8,  999.0,  999.0,  -10.6,  -10.9,  -11.2,  -11.6,  -12.1,  -11.4,  -10.6,   -9.6,   -9.2,  -10.0,  999.0
2010/03/01 07:20,  999.0,  999.0,    1.3,    3.6,    4.0,    4.2,    4.7,    5.0,    4.0,    4.6,    4.5,    4.1,  999.0,    4.3,    3.6,    2.6,    2.1,    1.2,    0.9,    0.3,   -0.6,   -1.2,  999.0,  999.0,  999.0,  999.0,   -0.6,    0.0,  999.0,    0.6,  999.0,    1.6,    2.3,  999.0,  999.0,  999.0,  999.0,  999.0,   -0.6,  999.0,  999.0,  999.0,   -1.7,  999.0,   -1.7,   -2.0,   -2.4,   -3.8,  999.0,  999.0,  999.0,   -7.4,   -7.8,   -8.6,   -8.1,   -7.8,  999.0,  999.0,  999.0,  999.0,  999.0,  999.0,  999.0,  999.0,  999.0,  999.0,  999.0,  999.0,  999.0,  999.0,  999.0,  999.0,  999.0,  999.0,  999.0,  999.0,  999.0,  999.0,  999.0,  999.0,  999.0,  999.0,  999.0,  999.0,  999.0,  999.0,  999.0,  999.0,  999.0,  999.0,  999.0,  999.0,  999.0,  999.0,  999.0,  999.0,  999.0,  999.0
2010/03/01 07:30,   -1.0,   -0.2,    0.2,    2.2,    3.0,    3.2,    3.8,    4.0,    4.1,    4.3,    3.7,  999.0,    3.5,    3.9,    3.5,    2.8,    2.4,    2.1,    1.5,    0.6,   -0.1,   -0.7,  999.0,  999.0,  999.0,  999.0,    0.4,    0.5,    0.9,    1.5,    1.8,    2.0,    2.4,  999.0,  999.0,  999.0,  999.0,  999.0,  999.0,  999.0,  999.0,  999.0,  999.0,   -1.3,   -2.3,  999.0,  999.0,  999.0,  999.0,  999.0,   -7.1,   -7.2,   -8.2,  999.0,  999.0,  999.0,  999.0,  999.0,  999.0,  999.0,  999.0,  999.0,  999.0,  999.0,  999.0,  999.0,  999.0,  999.0,  999.0,  999.0,  999.0,  999.0,  999.0,  999.0,  999.0,  999.0,  999.0,  999.0,  999.0,  999.0,  999.0,  999.0,  999.0,  999.0,  999.0,  -12.6,  999.0,  999.0,  999.0,  999.0,  999.0,  999.0,  999.0,  999.0,  999.0,  999.0,  999.0,  999.0
2010/03/01 07:40,   -0.9,   -0.2,    0.8,    2.1,    2.6,    2.9,    3.4,    3.9,    3.7,    3.9,    3.4,    3.4,    3.3,    3.5,    3.2,    2.5,    2.3,    1.6,    1.3,    0.7,   -0.3,   -0.5,   -0.2,  999.0,  999.0,   -0.5,  999.0,    0.5,    0.8,    1.7,    2.1,    2.0,    2.2,    2.4,    2.5,  999.0,  999.0,  999.0,  999.0,  999.0,  999.0,  999.0,  999.0,  999.0,   -2.6,   -3.6,   -4.6,  999.0,  999.0,  999.0,   -5.3,   -6.4,  999.0,  999.0,  999.0,  999.0,  999.0,  999.0,  999.0,  999.0,  999.0,  999.0,  999.0,  999.0,  999.0,  999.0,  999.0,  999.0,  999.0,  999.0,  999.0,  999.0,  999.0,  999.0,  999.0,  999.0,  999.0,  999.0,  999.0,  999.0,  999.0,  999.0,  999.0,  999.0,  999.0,  999.0,  999.0,  999.0,  999.0,  999.0,  999.0,  999.0,  999.0,  999.0,  999.0,  999.0,  999.0,  999.0
2010/03/01 07:50,   -0.4,   -0.1,    0.8,    2.2,    2.8,    2.8,    3.4,    3.9,    3.8,    4.2,    3.6,    3.3,    3.3,    3.0,    3.0,    2.9,    2.3,    1.8,    1.1,    0.3,   -0.5,   -1.0,   -1.4,   -2.0,   -1.7,   -1.6,   -2.1,   -0.8,   -0.4,    0.8,    1.7,    1.6,    2.0,    2.1,    2.0,  999.0,  999.0,  999.0,  999.0,   -0.8,  999.0,  999.0,  999.0,   -1.4,   -2.2,   -3.3,  999.0,  999.0,  999.0,  999.0,   -5.6,   -6.8,  999.0,  999.0,  999.0,   -7.4,   -7.9,  999.0,  999.0,  999.0,  999.0,  999.0,   -8.4,   -9.3,  999.0,  999.0,  999.0,  999.0,  999.0,  999.0,  999.0,  999.0,  999.0,  999.0,  999.0,  999.0,  999.0,  999.0,  999.0,  999.0,  999.0,  -11.2,  -11.4,  -11.5,  -12.3,  -12.8,  999.0,  999.0,  999.0,  999.0,  999.0,  999.0,  999.0,  999.0,  999.0,  999.0,  999.0,  999.0
2010/03/01 08:00,  999.0,   -0.3,    0.4,    2.5,    2.8,    2.9,    3.1,    3.6,    3.2,    3.6,    3.0,    2.8,    2.6,    2.6,    3.1,    2.9,    2.8,    2.1,    1.5,    1.0,    0.7,    0.3,   -0.4,   -0.7,   -0.9,   -0.8,   -0.8,   -0.6,   -0.3,   -0.0,    1.0,    1.4,    1.9,  999.0,  999.0,  999.0,  999.0,  999.0,  999.0,  999.0,  999.0,  999.0,  999.0,   -1.5,   -2.4,   -3.7,   -4.5,   -4.9,  999.0,  999.0,   -5.5,   -6.1,  999.0,  999.0,  999.0,   -7.1,   -7.4,   -8.8,  999.0,  999.0,  999.0,   -8.6,   -9.3,   -9.5,  999.0,  999.0,  999.0,  999.0,  999.0,  999.0,  999.0,  999.0,  999.0,  999.0,  999.0,  999.0,  999.0,  999.0,  999.0,  999.0,  999.0,  999.0,  999.0,  999.0,  999.0,  999.0,  999.0,  -13.0,  999.0,  999.0,  999.0,  999.0,  999.0,  999.0,  999.0,  999.0,  999.0,  999.0
2010/03/01 08:10,   -0.3,   -0.4,    0.3,    2.3,    2.4,    2.7,    2.8,    3.2,    2.9,    3.4,    2.8,    2.7,    3.0,  999.0,    2.9,    2.6,    1.9,    1.8,    1.0,    0.9,    0.4,    0.0,   -0.3,   -0.4,   -0.6,   -0.6,    0.0,   -0.1,   -0.2,    0.0,    1.1,    1.7,    2.4,  999.0,  999.0,  999.0,  999.0,  999.0,  999.0,  999.0,   -0.2,  999.0,  999.0,   -0.9,   -1.7,   -2.6,   -3.6,   -4.4,  999.0,  999.0,   -4.7,   -5.7,  999.0,  999.0,  999.0,   -6.2,   -7.6,   -9.0,  999.0,   -8.6,   -9.5,  -10.3,  999.0,  999.0,  999.0,  999.0,  999.0,  999.0,  999.0,  999.0,  999.0,  999.0,  999.0,  999.0,  999.0,  999.0,  999.0,  999.0,  999.0,  999.0,  999.0,  999.0,  999.0,  999.0,  999.0,  999.0,  999.0,  999.0,  999.0,  999.0,  999.0,  999.0,  999.0,  999.0,  999.0,  999.0,  999.0,  999.0
2010/03/01 08:20,   -0.7,   -0.5,  999.0,    2.4,    2.6,    2.9,    2.9,    3.1,    2.9,    3.1,    2.5,    2.6,    2.6,    2.6,    2.0,    1.6,    1.4,    1.4,    1.2,    0.9,    0.4,    0.3,    0.1,   -0.3,   -0.3,   -0.3,   -0.4,   -0.3,   -0.2,    0.7,    1.5,    2.2,    3.1,    2.9,  999.0,  999.0,  999.0,  999.0,  999.0,  999.0,   -1.1,  999.0,  999.0,   -1.8,   -2.5,   -3.5,   -4.3,  999.0,  999.0,   -4.4,   -4.2,   -5.4,  999.0,  999.0,  999.0,  999.0,   -8.6,   -9.9,  999.0,  999.0,   -8.7,   -9.2,  -10.2,  999.0,  999.0,  999.0,  999.0,  999.0,  999.0,  999.0,  999.0,  999.0,  999.0,  999.0,  999.0,  999.0,  999.0,  999.0,  999.0,  999.0,  999.0,  999.0,  999.0,  999.0,  999.0,  999.0,  999.0,  999.0,  999.0,  999.0,  999.0,  999.0,  999.0,  999.0,  999.0,  999.0,  999.0,  999.0
2010/03/01 08:30,   -0.3,   -0.4,    0.5,    2.4,    3.0,    2.9,    3.2,    3.1,    3.4,    3.2,    2.6,    2.4,    2.3,    2.4,    1.6,    1.6,  999.0,    1.5,    1.6,    1.3,    1.1,    0.9,    0.4,    0.1,    0.2,    0.2,   -0.1,   -0.0,  999.0,    1.6,    2.3,    3.4,    3.3,    3.1,  999.0,  999.0,  999.0,  999.0,  999.0,   -1.2,   -1.1,  999.0,  999.0,   -1.3,   -2.0,   -2.8,   -3.3,   -4.3,  999.0,  999.0,   -4.5,   -5.2,   -6.4,  999.0,  999.0,   -7.1,   -8.4,  999.0,  999.0,   -8.9,   -8.1,   -8.5,   -9.5,  999.0,  999.0,  999.0,  999.0,  999.0,  999.0,  999.0,  999.0,  999.0,  999.0,  999.0,  999.0,  999.0,  999.0,  999.0,  999.0,  999.0,  999.0,  999.0,  999.0,  999.0,  999.0,  999.0,  999.0,  999.0,  999.0,  999.0,  999.0,  999.0,  999.0,  999.0,  999.0,  999.0,  999.0,  999.0
2010/03/01 08:40,   -0.4,   -0.2,    0.2,    1.0,    2.6,    3.0,    2.9,    3.4,    3.3,    3.3,    3.6,    2.8,    2.1,    2.8,    2.5,    2.1,    1.6,    1.6,    1.5,    1.4,    1.3,    1.2,    0.9,    0.7,    0.9,    0.8,   -0.0,    0.0,    0.8,    1.9,    2.7,    3.5,    3.2,    3.2,  999.0,  999.0,  999.0,  999.0,   -1.3,   -1.1,   -1.0,  999.0,  999.0,   -1.1,   -1.8,   -2.5,   -3.4,   -4.2,  999.0,   -4.0,   -4.7,   -5.5,   -5.5,   -5.9,   -6.6,   -8.2,   -9.1,   -9.7,   -9.9,  999.0,   -8.3,   -9.4,  999.0,  999.0,  999.0,  999.0,  999.0,  999.0,  999.0,  999.0,  999.0,  999.0,  999.0,  999.0,  999.0,  999.0,  999.0,  999.0,  999.0,  999.0,  999.0,  999.0,  999.0,  999.0,  999.0,  999.0,  999.0,  999.0,  999.0,  999.0,  999.0,  999.0,  999.0,  999.0,  999.0,  999.0,  999.0,  999.0
2010/03/01 08:50,   -0.4,   -0.3,    0.6,    0.8,    2.5,    2.9,    3.0,    3.3,    3.4,    3.5,    3.6,    2.6,    2.2,    2.9,    2.8,    2.1,    2.1,    2.0,    2.0,    1.8,    1.6,    1.7,    1.5,    1.1,    0.8,  999.0,    0.5,    0.5,    1.0,    2.0,    3.3,    3.9,  999.0,    3.1,  999.0,  999.0,  999.0,  999.0,   -0.1,  999.0,   -1.1,   -1.0,  999.0,   -1.5,   -1.9,   -2.8,   -3.6,   -4.2,  999.0,  999.0,   -5.1,   -5.5,   -7.0,   -7.1,   -8.0,   -8.1,   -9.0,   -9.6,   -9.8,   -8.3,   -8.1,   -9.3,  999.0,  999.0,  999.0,  999.0,  999.0,  999.0,  999.0,  999.0,  999.0,  999.0,  999.0,  999.0,  999.0,  999.0,  999.0,  999.0,  999.0,  999.0,  999.0,  999.0,  999.0,  999.0,  999.0,  999.0,  999.0,  999.0,  999.0,  999.0,  999.0,  999.0,  999.0,  999.0,  999.0,  999.0,  999.0,  999.0
2010/03/01 09:00,   -1.2,   -0.6,   -0.1,    0.3,    2.4,    2.9,    2.5,    3.0,    2.9,    3.1,    3.5,    3.1,    1.8,    2.2,    2.5,    1.4,    1.7,    2.0,    1.9,    1.7,    1.2,    1.4,    1.0,    0.6,    0.5,    0.2,    0.7,    0.7,    1.0,    1.6,    3.1,    3.9,    4.4,  999.0,    3.2,  999.0,  999.0,  999.0,  999.0,  999.0,  999.0,   -0.2,  999.0,  999.0,   -1.5,   -2.0,   -3.1,  999.0,   -3.6,   -4.3,   -5.4,   -6.6,   -7.6,   -8.3,  999.0,   -7.8,   -9.3,  -10.4,  999.0,  999.0,  999.0,  999.0,  999.0,  999.0,  999.0,  999.0,  999.0,  999.0,  999.0,  999.0,  999.0,  999.0,  999.0,  999.0,  999.0,  999.0,  999.0,  999.0,  999.0,  999.0,  999.0,  999.0,  999.0,  999.0,  999.0,  999.0,  999.0,  999.0,  999.0,  999.0,  999.0,  999.0,  999.0,  999.0,  999.0,  999.0,  999.0,  999.0
2010/03/01 09:10,   -0.5,    0.2,    0.6,    1.0,    2.7,    3.4,    3.1,    3.5,    3.7,    3.7,  999.0,    3.7,    3.1,    2.3,    2.6,    1.7,    1.5,    1.9,    1.9,    1.8,    1.2,    1.1,    0.3,   -0.0,   -0.1,    0.4,    0.6,    1.2,    1.5,    1.8,    2.8,    3.5,  999.0,    2.1,    2.4,  999.0,  999.0,  999.0,   -0.8,   -1.3,   -1.5,   -0.7,  999.0,   -1.5,   -2.2,   -3.1,   -4.2,   -4.2,   -4.6,   -5.2,   -5.7,   -6.4,  999.0,   -6.1,   -6.7,   -7.9,  999.0,  999.0,  999.0,  999.0,  999.0,  999.0,  999.0,  999.0,  999.0,  -10.5,  -11.6,  999.0,  999.0,  999.0,  999.0,  999.0,  999.0,  999.0,  999.0,  999.0,  999.0,  999.0,  999.0,  999.0,  999.0,  999.0,  999.0,  999.0,  999.0,  999.0,  999.0,  999.0,  999.0,  999.0,  999.0,  999.0,  999.0,  999.0,  999.0,  999.0,  999.0,  999.0
2010/03/01 09:20,   -0.4,    0.2,    1.1,    1.7,    3.3,    3.6,    3.3,    3.7,    4.1,    4.3,    4.3,    3.9,    3.1,    2.7,    2.6,    2.1,    1.4,    1.0,    1.2,    1.3,    0.7,    0.5,    0.2,   -0.8,   -0.7,   -0.4,    0.2,    0.2,    0.4,    1.4,    2.8,    2.8,  999.0,    2.2,  999.0,  999.0,  999.0,  999.0,   -0.1,   -1.2,   -1.4,   -0.9,   -0.7,   -1.6,   -2.1,   -3.6,   -4.4,   -3.6,   -4.4,   -5.4,   -5.2,   -6.2,   -6.6,   -6.0,   -6.7,   -7.9,  999.0,  999.0,  999.0,   -9.0,  999.0,  999.0,   -9.0,   -9.9,  -10.4,  -11.7,  -12.5,  999.0,  999.0,  999.0,  999.0,  999.0,  999.0,  999.0,  999.0,  999.0,  999.0,  999.0,  999.0,  999.0,  999.0,  999.0,  999.0,  999.0,  999.0,  999.0,  999.0,  999.0,  999.0,  999.0,  999.0,  999.0,  999.0,  999.0,  999.0,  999.0,  999.0,  999.0
2010/03/01 09:30,    0.3,    0.5,    0.6,    1.5,    2.7,    3.2,    3.1,    3.5,    4.1,    4.1,    4.0,    3.0,    3.0,    3.2,    2.6,    1.8,    1.6,    1.5,    1.2,    1.0,    0.9,    0.8,    0.7,    0.5,   -0.1,    0.2,    0.2,   -0.2,   -0.1,    0.8,    2.1,    2.6,  999.0,  999.0,  999.0,  999.0,  999.0,  999.0,  999.0,   -0.3,  999.0,  999.0,   -0.7,   -1.4,   -2.3,   -3.5,   -3.9,   -3.5,  999.0,   -4.6,   -5.5,   -6.2,   -6.4,  999.0,  999.0,  999.0,  999.0,  999.0,   -8.3,   -8.3,  999.0,   -9.0,  -10.1,  -10.0,  999.0,  999.0,  999.0,  999.0,  999.0,  999.0,  999.0,  999.0,  999.0,  999.0,  999.0,  999.0,  999.0,  999.0,  999.0,  999.0,  999.0,  999.0,  999.0,  999.0,  999.0,  999.0,  999.0,  999.0,  999.0,  999.0,  999.0,  999.0,  999.0,  999.0,  999.0,  999.0,  999.0,  999.0
2010/03/01 09:40,    0.0,    0.6,    1.8,    1.4,    3.0,    3.1,    2.9,    3.7,    4.0,    4.0,    3.2,    3.4,    3.9,    3.1,    2.5,    1.6,    1.4,    1.3,    1.2,    1.2,    1.1,    1.2,    1.1,    0.5,    0.2,    0.6,    0.9,    0.5,    0.4,    1.0,    2.3,  999.0,  999.0,  999.0,    1.2,  999.0,  999.0,  999.0,   -0.3,   -0.5,   -0.8,  999.0,   -1.6,   -2.1,   -2.8,   -4.0,  999.0,  999.0,  999.0,   -5.1,   -5.9,   -6.4,   -6.6,   -7.2,  999.0,  999.0,  999.0,  999.0,   -9.1,  999.0,   -9.0,   -9.6,  -10.8,  999.0,  999.0,  999.0,  999.0,  999.0,  999.0,  999.0,  999.0,  999.0,  999.0,  999.0,  999.0,  999.0,  999.0,  999.0,  999.0,  999.0,  999.0,  999.0,  999.0,  999.0,  999.0,  999.0,  999.0,  999.0,  999.0,  999.0,  999.0,  999.0,  999.0,  999.0,  999.0,  999.0,  999.0,  999.0
2010/03/01 09:50,    0.3,    0.2,    0.9,    1.4,    2.8,    2.9,    2.8,    3.2,    3.9,    4.0,    3.4,    3.3,    3.9,    3.5,    2.8,    1.6,    0.9,    0.3,    0.5,    0.8,    0.9,    0.8,    0.7,    0.3,   -0.1,    0.5,    1.0,    0.7,    0.8,    1.7,  999.0,    2.3,  999.0,    0.9,  999.0,  999.0,  999.0,    0.1,  999.0,  999.0,  999.0,   -1.3,   -2.0,   -3.2,   -4.0,  999.0,  999.0,  999.0,   -5.1,   -5.9,   -6.4,   -6.6,   -6.7,   -7.0,  999.0,  999.0,  999.0,   -8.7,   -9.8,  999.0,  999.0,   -9.9,  999.0,  999.0,  999.0,  999.0,  999.0,  999.0,  999.0,  999.0,  999.0,  999.0,  999.0,  999.0,  999.0,  999.0,  999.0,  999.0,  999.0,  999.0,  999.0,  999.0,  999.0,  999.0,  999.0,  999.0,  999.0,  999.0,  999.0,  999.0,  999.0,  999.0,  999.0,  999.0,  999.0,  999.0,  999.0,  999.0
2010/03/01 10:00,   -0.5,    0.1,    0.1,    0.7,    2.4,    2.6,    2.3,    2.8,    3.4,    3.6,  999.0,    3.2,    3.7,    3.1,    2.9,    1.8,    1.0,    0.9,    0.8,    1.1,    1.0,    1.2,    1.1,    1.4,    0.7,    1.0,    1.3,    1.3,    1.3,    2.3,    3.0,  999.0,  999.0,  999.0,  999.0,  999.0,  999.0,  999.0,  999.0,  999.0,  999.0,   -2.0,   -2.4,   -3.5,   -4.3,  999.0,  999.0,  999.0,  999.0,   -5.6,   -6.1,   -6.7,  999.0,   -7.5,   -8.6,   -9.4,  999.0,  999.0,  999.0,  999.0,  999.0,  999.0,  999.0,  999.0,  999.0,  999.0,  999.0,  999.0,  999.0,  999.0,  999.0,  999.0,  999.0,  999.0,  999.0,  999.0,  999.0,  999.0,  999.0,  999.0,  999.0,  999.0,  999.0,  999.0,  999.0,  999.0,  999.0,  999.0,  999.0,  999.0,  999.0,  999.0,  999.0,  999.0,  999.0,  999.0,  999.0,  999.0
2010/03/01 10:10,    0.0,   -0.5,   -0.8,    0.3,    1.3,    1.5,    1.5,    1.9,    2.4,    2.6,    2.5,    2.5,    3.4,    3.1,    2.9,    2.3,    1.3,    1.3,    1.4,    1.3,    1.0,    1.0,    1.0,    1.2,    1.1,    0.7,    1.2,    1.2,    0.8,    1.3,    2.2,  999.0,  999.0,  999.0,  999.0,  999.0,  999.0,    0.1,   -0.1,  999.0,   -1.1,   -2.0,   -2.9,   -3.7,   -4.6,   -4.8,  999.0,  999.0,   -4.7,   -5.2,  999.0,  999.0,   -4.9,   -7.0,   -7.9,   -8.4,  999.0,  999.0,  999.0,   -8.5,  -10.0,  -10.4,  999.0,  999.0,  999.0,  -11.3,  -12.7,  -13.0,  999.0,  999.0,  999.0,  999.0,  999.0,  999.0,  999.0,  999.0,  999.0,  999.0,  999.0,  999.0,  999.0,  999.0,  999.0,  999.0,  999.0,  999.0,  999.0,  999.0,  999.0,  999.0,  999.0,  999.0,  999.0,  999.0,  999.0,  999.0,  999.0,  999.0
2010/03/01 10:20,   -0.2,    0.7,    0.6,    1.7,    2.6,    2.5,    2.3,    2.6,    3.1,    3.0,    2.3,    2.1,    2.9,    2.4,    2.6,    2.0,    1.5,    1.7,    1.5,    1.3,    1.0,    1.0,    1.2,    1.2,    1.1,    0.6,    0.0,    1.1,    2.5,  999.0,    1.6,    2.4,  999.0,  999.0,  999.0,  999.0,  999.0,  999.0,  999.0,    0.1,  999.0,   -1.0,   -1.9,   -2.8,   -4.1,  999.0,  999.0,   -4.2,   -4.6,  999.0,  999.0,  999.0,   -4.9,   -5.8,   -7.5,  999.0,   -7.0,   -7.1,   -8.4,   -9.1,  -10.1,  999.0,  999.0,  999.0,  999.0,  999.0,  999.0,  999.0,  999.0,  999.0,  999.0,  999.0,  999.0,  999.0,  999.0,  999.0,  999.0,  999.0,  999.0,  999.0,  999.0,  999.0,  999.0,  999.0,  999.0,  999.0,  999.0,  999.0,  999.0,  999.0,  999.0,  999.0,  999.0,  999.0,  999.0,  999.0,  999.0,  999.0
2010/03/01 10:30,    0.0,   -0.2,   -0.7,    0.3,    2.0,    0.0,    1.1,    1.7,    3.2,    3.3,    2.9,    3.0,    2.9,    1.8,    1.9,    1.4,    1.3,    1.3,    1.1,    1.0,    0.8,    0.6,    1.1,    1.5,    1.2,  999.0,  999.0,    1.0,    0.9,  999.0,    0.9,    1.5,  999.0,  999.0,  999.0,  999.0,  999.0,  999.0,  999.0,  999.0,  999.0,   -1.0,   -1.8,   -2.5,   -3.7,  999.0,  999.0,  999.0,   -5.0,  999.0,   -4.7,   -5.0,   -6.0,  999.0,  999.0,  999.0,  999.0,   -8.4,   -9.8,  999.0,  999.0,  999.0,  999.0,  999.0,  -11.8,  -13.4,  999.0,  999.0,  999.0,  999.0,  999.0,  999.0,  999.0,  999.0,  999.0,  999.0,  999.0,  999.0,  999.0,  999.0,  999.0,  999.0,  999.0,  999.0,  999.0,  999.0,  999.0,  999.0,  999.0,  999.0,  999.0,  999.0,  999.0,  999.0,  999.0,  999.0,  999.0,  999.0
2010/03/01 10:40,    0.5,    0.6,  999.0,  999.0,    1.7,    2.5,    2.2,    3.3,    4.3,    4.1,    3.8,    3.4,    3.8,    3.6,    2.5,    2.3,    1.6,    1.7,    1.3,    1.2,    1.2,    0.7,    1.0,    0.9,    0.6,   -0.1,   -0.5,    0.8,    0.5,   -0.1,    0.4,    1.3,    1.9,  999.0,  999.0,  999.0,  999.0,  999.0,  999.0,  999.0,  999.0,   -0.5,   -1.4,   -2.0,   -3.2,  999.0,  999.0,  999.0,  999.0,   -3.8,   -4.5,   -5.1,   -6.0,  999.0,  999.0,  999.0,  999.0,   -7.6,   -8.7,  999.0,  999.0,  999.0,  999.0,  -10.0,  -11.5,  -13.3,  999.0,  999.0,  999.0,  999.0,  999.0,  999.0,  999.0,  999.0,  999.0,  999.0,  999.0,  999.0,  999.0,  999.0,  999.0,  999.0,  999.0,  999.0,  999.0,  999.0,  999.0,  999.0,  999.0,  999.0,  999.0,  999.0,  999.0,  999.0,  999.0,  999.0,  999.0,  999.0
2010/03/01 10:50,  999.0,    3.4,    3.4,    1.4,    1.8,    2.0,    2.3,    3.3,    3.7,    3.2,    3.3,    3.7,    4.4,    3.5,    3.0,    2.1,    1.7,  999.0,    1.2,    1.3,    1.0,    0.9,    1.0,    0.7,    0.7,    0.4,    0.3,    1.1,    0.8,    0.4,    0.9,    1.5,    1.7,    0.8,  999.0,  999.0,  999.0,  999.0,  999.0,  999.0,  999.0,  999.0,   -1.3,   -1.9,   -3.1,  999.0,  999.0,   -4.7,  999.0,   -4.8,   -5.3,   -5.9,   -6.4,   -7.5,  999.0,  999.0,  999.0,   -8.9,  999.0,  999.0,  999.0,  999.0,  999.0,  999.0,  -12.5,  999.0,  999.0,  999.0,  999.0,  999.0,  999.0,  999.0,  999.0,  999.0,  999.0,  999.0,  999.0,  999.0,  999.0,  999.0,  999.0,  999.0,  999.0,  -12.2,  999.0,  999.0,  999.0,  999.0,  999.0,  999.0,  999.0,  999.0,  999.0,  999.0,  999.0,  999.0,  999.0,  999.0
2010/03/01 11:00,    1.3,    2.1,    2.4,    1.0,    2.1,    2.9,    3.2,    3.5,    3.8,    3.8,    3.4,    3.9,    4.4,    3.5,    3.4,    2.8,    2.3,    2.0,    1.6,    1.7,    1.6,    1.3,    1.3,    0.8,    0.7,    0.2,    0.9,    1.5,    1.5,    1.2,    2.0,    2.4,  999.0,  999.0,  999.0,  999.0,  999.0,  999.0,  999.0,  999.0,  999.0,   -1.2,   -1.7,   -2.5,  999.0,  999.0,  999.0,  999.0,   -3.8,   -4.4,   -4.8,   -5.2,   -5.9,   -6.7,  999.0,  999.0,   -8.1,   -8.9,  999.0,  999.0,  999.0,  999.0,  999.0,  -10.2,  -12.1,  999.0,  999.0,  999.0,  999.0,  999.0,  999.0,  999.0,  999.0,  999.0,  999.0,  999.0,  999.0,  999.0,  999.0,  999.0,  999.0,  -13.6,  -12.9,  -11.9,  999.0,  999.0,  999.0,  999.0,  999.0,  999.0,  999.0,  999.0,  999.0,  999.0,  999.0,  999.0,  999.0,  999.0
2010/03/01 11:10,  999.0,  999.0,    1.7,    2.5,    2.5,    2.4,    3.7,    2.9,    4.4,    4.1,    3.7,    4.0,    4.8,    4.7,    3.7,    3.7,    2.8,    2.5,    2.1,    2.2,    2.7,    2.3,    1.7,    1.6,    0.9,    0.8,    0.9,    1.2,    1.4,    1.2,    1.0,    1.6,  999.0,  999.0,  999.0,  999.0,  999.0,  999.0,  999.0,  999.0,   -1.3,   -1.7,   -2.3,   -3.4,  999.0,   -4.8,  999.0,  999.0,   -4.4,   -4.6,   -4.8,   -5.7,   -6.5,   -7.9,   -8.8,   -9.6,   -9.8,  -10.2,  999.0,  999.0,  999.0,  999.0,  999.0,  -10.2,  -12.2,  999.0,  999.0,  999.0,  999.0,  999.0,  999.0,  999.0,  999.0,  999.0,  999.0,  999.0,  999.0,  999.0,  999.0,  -12.9,  -13.4,  -14.0,  -14.0,  -13.0,  -11.7,  -11.7,  -11.4,  -10.9,  -10.5,   -9.9,   -9.9,   -9.9,   -9.8,   -9.9,  -10.3,  -10.4,  999.0,  999.0
2010/03/01 11:20,    0.1,   -0.6,    0.2,    1.0,    0.8,    1.3,    1.7,    2.5,  999.0,    3.3,    3.5,    3.8,    4.3,    4.0,    3.6,    3.6,    3.0,    2.6,    2.0,    1.9,    2.0,    1.6,    1.4,    1.1,    0.9,    0.5,    0.6,    1.1,    1.4,    1.3,  999.0,    1.5,    2.0,  999.0,    1.0,  999.0,  999.0,  999.0,  999.0,  999.0,   -1.0,   -1.2,   -1.6,  999.0,   -3.9,  999.0,  999.0,  999.0,  999.0,   -4.7,   -5.3,  999.0,   -7.2,   -8.2,   -9.2,  999.0,  999.0,  999.0,  999.0,  999.0,  999.0,  999.0,  999.0,   -9.7,  999.0,  999.0,  999.0,  999.0,  999.0,  999.0,  999.0,  999.0,  999.0,  999.0,  999.0,  999.0,  999.0,  999.0,  999.0,  999.0,  999.0,  999.0,  999.0,  999.0,  -11.8,  -11.3,  -11.1,  999.0,  999.0,  999.0,  999.0,  999.0,  999.0,  999.0,  999.0,  999.0,  999.0,  999.0
2010/03/01 11:30,   -0.1,    0.1,  999.0,  999.0,    0.6,    1.2,    3.0,    2.6,    2.9,    3.3,  999.0,    4.4,    4.8,    4.6,    4.0,    3.8,    4.2,    3.3,    2.9,    2.6,    2.2,    1.9,    0.9,    1.0,    0.7,    0.6,    0.7,    0.9,    0.3,   -0.3,    0.0,    0.3,    0.6,  999.0,    0.0,   -0.2,  999.0,  999.0,  999.0,   -0.9,   -1.4,   -1.8,   -2.5,  999.0,  999.0,  999.0,  999.0,   -4.9,   -5.4,   -5.8,   -6.2,  999.0,   -8.4,  999.0,  999.0,  999.0,  999.0,  999.0,  999.0,  999.0,  999.0,   -8.8,  -10.2,  -11.2,  999.0,  999.0,  999.0,  999.0,  999.0,  999.0,  999.0,  999.0,  999.0,  999.0,  999.0,  999.0,  999.0,  999.0,  999.0,  999.0,  999.0,  999.0,  999.0,  999.0,  999.0,  999.0,  999.0,  999.0,  999.0,  999.0,  999.0,  999.0,  999.0,  999.0,  999.0,  999.0,  999.0,  999.0
2010/03/01 11:40,    0.1,  999.0,  999.0,  999.0,    2.4,    3.0,    2.2,    3.1,    2.9,    3.7,  999.0,    3.4,    3.8,    2.8,    2.8,    2.8,    3.3,    2.8,    2.4,    2.4,    2.3,    1.9,    1.2,    0.7,    1.0,    0.5,   -0.0,  999.0,  999.0,   -0.0,   -0.3,    0.2,    0.7,    1.1,  999.0,    0.4,  999.0,  999.0,  999.0,  999.0,  999.0,   -1.5,   -2.2,  999.0,  999.0,  999.0,  999.0,   -5.2,   -5.7,   -5.2,   -6.5,   -7.6,   -8.5,  999.0,  999.0,  999.0,  999.0,  999.0,  999.0,  999.0,  999.0,   -9.9,  999.0,  999.0,  999.0,  999.0,  999.0,  999.0,  999.0,  999.0,  999.0,  999.0,  999.0,  999.0,  999.0,  999.0,  999.0,  999.0,  999.0,  999.0,  999.0,  999.0,  999.0,  999.0,  999.0,  999.0,  999.0,  999.0,  999.0,  999.0,  999.0,  999.0,  999.0,  999.0,  999.0,  999.0,  999.0,  999.0
2010/03/01 11:50,    0.1,    0.7,   -1.1,  999.0,    1.3,    1.8,    1.8,    2.0,    3.3,    3.7,  999.0,    4.0,    3.3,    4.2,    3.6,    3.4,    3.8,    3.5,    3.5,    3.2,    3.2,    2.1,    1.5,    1.6,    1.7,    1.2,    0.7,  999.0,  999.0,   -0.0,   -0.6,  999.0,    0.6,    0.9,    1.0,    0.8,  999.0,  999.0,  999.0,  999.0,  999.0,   -2.0,   -2.8,  999.0,  999.0,  999.0,  999.0,   -5.5,   -5.5,   -6.1,   -7.1,   -7.3,   -7.9,   -8.6,   -9.3,  999.0,  999.0,  999.0,  999.0,  999.0,  999.0,  999.0,  999.0,  999.0,  999.0,  999.0,  999.0,  999.0,  999.0,  999.0,  999.0,  999.0,  999.0,  999.0,  999.0,  999.0,  999.0,  999.0,  999.0,  999.0,  999.0,  999.0,  999.0,  999.0,  999.0,  999.0,  999.0,  999.0,  999.0,  999.0,  999.0,  999.0,  999.0,  999.0,  999.0,  999.0,  999.0,  999.0
2010/03/01 12:00,  999.0,    1.4,  999.0,    1.2,    1.3,    1.9,    3.0,    3.2,    2.7,    3.4,    3.6,    4.3,    4.6,    4.7,    4.6,    4.0,    4.3,    4.3,    3.9,    3.8,    3.6,    2.6,  999.0,    1.8,    1.5,    1.0,    0.5,  999.0,   -0.2,   -0.2,   -0.7,   -0.4,    0.4,    1.1,    1.7,    0.9,  999.0,  999.0,  999.0,  999.0,   -1.5,   -2.1,  999.0,  999.0,  999.0,   -4.5,   -4.8,   -5.2,   -5.5,   -6.4,   -6.4,   -7.5,   -7.9,   -8.7,   -9.4,  999.0,  999.0,  999.0,   -7.9,   -8.9,  999.0,  999.0,  999.0,  999.0,  999.0,  999.0,  999.0,  999.0,  999.0,  999.0,  999.0,  999.0,  999.0,  999.0,  999.0,  999.0,  999.0,  999.0,  999.0,  999.0,  999.0,  999.0,  999.0,  999.0,  999.0,  999.0,  999.0,  999.0,  999.0,  999.0,  999.0,  999.0,  999.0,  999.0,  999.0,  999.0,  999.0,  999.0
2010/03/01 12:10,  999.0,  999.0,  999.0,    2.7,    2.1,    3.0,    2.9,    3.4,    3.3,    4.2,    5.1,    4.8,    5.8,    5.5,    5.8,    4.9,    4.7,    4.8,    4.7,    4.5,    4.4,    3.7,    2.3,    1.7,    1.6,    0.9,    0.2,  999.0,   -0.5,   -0.6,   -0.6,   -0.2,    0.0,    0.8,  999.0,    0.2,  999.0,  999.0,  999.0,   -1.4,   -1.7,   -2.3,   -3.4,   -4.8,  999.0,   -4.6,   -5.1,   -5.2,  999.0,   -6.5,   -7.3,   -7.9,   -8.4,   -9.0,   -9.4,  -10.6,  999.0,  999.0,  -10.1,  999.0,  999.0,  999.0,  999.0,  999.0,  999.0,  999.0,  999.0,  999.0,  999.0,  999.0,  999.0,  999.0,  999.0,  999.0,  999.0,  999.0,  999.0,  999.0,  999.0,  999.0,  999.0,  999.0,  999.0,  999.0,  999.0,  999.0,  999.0,  999.0,  999.0,  999.0,  999.0,  999.0,  999.0,  999.0,  999.0,  999.0,  999.0,  999.0
2010/03/01 12:20,    0.2,    2.0,    2.3,    2.7,    2.3,    2.4,    2.5,    3.2,    2.9,    3.4,    4.5,    4.5,    5.1,    5.3,    5.6,    5.7,    5.5,    5.2,    5.3,    5.9,  999.0,    3.6,  999.0,    2.9,    2.1,    1.7,    0.4,   -0.3,   -0.4,   -0.6,   -0.9,   -0.8,    0.3,    0.4,    1.1,    0.8,  999.0,  999.0,  999.0,  999.0,   -1.3,   -2.1,  999.0,  999.0,  999.0,  999.0,  999.0,  999.0,   -6.3,   -7.0,   -7.5,  999.0,   -8.2,   -8.7,   -9.4,   -9.8,  -10.4,  -10.8,  999.0,  999.0,  999.0,  999.0,  999.0,  999.0,  999.0,  999.0,  999.0,  999.0,  999.0,  999.0,  999.0,  999.0,  999.0,  999.0,  999.0,  999.0,  999.0,  999.0,  999.0,  999.0,  999.0,  999.0,  999.0,  999.0,  999.0,  999.0,  999.0,  999.0,  999.0,  999.0,  999.0,  999.0,  999.0,  999.0,  999.0,  999.0,  999.0,  999.0
2010/03/01 12:30,    0.2,    1.5,    1.0,    2.1,    2.6,    2.7,    3.0,    3.2,    3.2,    3.6,    4.4,  999.0,    6.0,    6.0,    4.9,  999.0,    4.1,    4.2,    4.2,    4.2,    4.2,    3.7,    3.1,    2.8,    2.7,    2.5,    0.7,    0.2,   -0.1,   -0.3,   -0.3,    0.4,    0.7,    0.7,    0.8,  999.0,  999.0,  999.0,  999.0,  999.0,  999.0,  999.0,  999.0,  999.0,  999.0,  999.0,  999.0,   -4.7,   -5.9,   -6.4,   -7.2,   -7.7,   -7.9,   -8.8,  999.0,  999.0,   -9.9,  -11.7,  999.0,  999.0,  999.0,  999.0,  999.0,  999.0,  999.0,  999.0,  999.0,  999.0,  999.0,  999.0,  999.0,  999.0,  999.0,  999.0,  999.0,  999.0,  999.0,  999.0,  999.0,  999.0,  999.0,  999.0,  999.0,  999.0,  999.0,  999.0,  999.0,  999.0,  999.0,  999.0,  999.0,  999.0,  999.0,  999.0,  999.0,  999.0,  999.0,  999.0
2010/03/01 12:40,  999.0,    0.8,    0.5,    1.4,    0.9,    2.2,    3.0,    3.7,    3.8,    4.0,    5.2,    5.2,    5.9,    6.2,    5.2,    5.5,    5.8,    5.7,    5.1,    5.0,    4.3,    3.8,    2.7,    2.6,    2.3,    1.9,    0.5,    0.4,   -0.2,   -1.1,  999.0,  999.0,    0.3,    0.7,    0.7,  999.0,  999.0,  999.0,  999.0,  999.0,  999.0,  999.0,  999.0,  999.0,  999.0,  999.0,  999.0,   -4.4,   -5.6,   -5.9,   -6.7,   -6.9,   -7.4,   -8.3,  999.0,  999.0,   -9.2,  -10.9,  999.0,  999.0,  999.0,  999.0,  999.0,  999.0,  999.0,  999.0,  999.0,  999.0,  999.0,  999.0,  999.0,  999.0,  999.0,  999.0,  999.0,  999.0,  999.0,  999.0,  999.0,  999.0,  999.0,  999.0,  999.0,  999.0,  999.0,  999.0,  999.0,  999.0,  999.0,  999.0,  999.0,  999.0,  999.0,  999.0,  999.0,  999.0,  999.0,  999.0
2010/03/01 12:50,  999.0,  999.0,  999.0,  999.0,  999.0,    2.2,    3.8,  999.0,    2.8,    3.3,    2.8,    4.5,    4.7,    5.1,    4.9,    5.3,    4.4,    5.2,    5.3,    5.6,    4.0,    3.5,    2.5,    2.4,    2.4,    1.5,    0.5,    0.4,    0.3,   -0.4,    0.3,  999.0,    1.1,    1.1,    1.0,  999.0,  999.0,  999.0,  999.0,   -0.8,  999.0,  999.0,  999.0,  999.0,  999.0,   -4.2,   -4.2,   -5.3,   -6.3,   -6.8,   -7.3,   -7.9,   -8.5,   -9.6,  999.0,  999.0,  999.0,  -10.3,  999.0,  999.0,  999.0,  999.0,  999.0,  999.0,  999.0,  999.0,  999.0,  999.0,  999.0,  999.0,  999.0,  999.0,  999.0,  999.0,  999.0,  999.0,  999.0,  999.0,  999.0,  999.0,  999.0,  999.0,  999.0,  999.0,  999.0,  999.0,  999.0,  999.0,  999.0,  999.0,  999.0,  999.0,  999.0,  999.0,  999.0,  999.0,  999.0,  999.0
2010/03/01 13:00,  999.0,  999.0,  999.0,  999.0,    3.3,    2.7,    2.7,    3.0,    4.1,    3.6,    3.5,    3.9,    4.3,    4.7,    4.6,    4.8,    4.3,    4.4,    4.4,    4.3,    3.8,    3.1,    2.8,    2.7,    2.7,    1.8,    0.8,    0.3,   -0.1,  999.0,  999.0,  999.0,    1.8,    1.7,  999.0,  999.0,  999.0,  999.0,  999.0,   -1.2,  999.0,  999.0,  999.0,  999.0,  999.0,  999.0,   -4.6,   -5.9,   -6.7,   -7.4,   -7.6,   -7.9,   -8.9,  999.0,  999.0,  999.0,   -9.1,  -10.3,  999.0,  999.0,  999.0,  999.0,  999.0,  999.0,  999.0,  999.0,  999.0,  999.0,  999.0,  999.0,  999.0,  999.0,  999.0,  999.0,  999.0,  999.0,  999.0,  999.0,  999.0,  999.0,  999.0,  999.0,  999.0,  999.0,  999.0,  999.0,  999.0,  999.0,  999.0,  999.0,  999.0,  999.0,  999.0,  999.0,  999.0,  999.0,  999.0,  999.0
2010/03/01 13:10,    0.5,  999.0,    1.6,  999.0,    1.3,    2.7,    2.3,    2.0,    2.3,    2.5,    3.0,    3.4,    3.9,    4.1,    4.4,    4.5,    4.6,  999.0,    4.2,    4.1,    4.0,    3.6,    3.2,    3.2,    2.9,    2.7,    1.5,    1.0,  999.0,    0.4,   -0.2,  999.0,  999.0,  999.0,    1.8,  999.0,  999.0,  999.0,   -1.2,   -1.3,  999.0,  999.0,  999.0,  999.0,  999.0,  999.0,   -5.3,   -6.4,   -6.9,   -7.2,   -7.8,   -8.1,  999.0,  999.0,  999.0,  999.0,   -9.4,  -11.5,  999.0,  999.0,  999.0,  999.0,  999.0,  999.0,  999.0,  999.0,  999.0,  999.0,  999.0,  999.0,  999.0,  999.0,  999.0,  999.0,  999.0,  999.0,  999.0,  999.0,  999.0,  999.0,  999.0,  999.0,  999.0,  999.0,  999.0,  999.0,  999.0,  999.0,  999.0,  999.0,  999.0,  999.0,  999.0,  999.0,  999.0,  999.0,  999.0,  999.0
2010/03/01 13:20,  999.0,  999.0,    3.8,    4.5,    4.1,    3.5,    2.8,    1.9,    2.5,    2.6,    3.3,    3.7,    4.4,    4.6,  999.0,    4.3,    4.1,    4.2,    4.3,    3.7,    3.9,    3.9,    3.9,    3.1,    3.2,    2.9,    2.1,    1.4,    0.8,    0.5,   -0.0,   -0.1,    0.7,    0.9,    0.6,    1.2,  999.0,  999.0,  999.0,  999.0,  999.0,  999.0,  999.0,   -4.2,  999.0,  999.0,   -5.7,   -6.1,   -6.6,   -7.5,   -7.5,   -8.5,  999.0,  999.0,  999.0,  999.0,   -9.5,  -10.8,  -11.8,  -10.8,  -10.8,  999.0,  999.0,  999.0,  999.0,  999.0,  999.0,  999.0,  999.0,  999.0,  999.0,  999.0,  999.0,  999.0,  999.0,  999.0,  999.0,  999.0,  999.0,  999.0,  999.0,  999.0,  999.0,  999.0,  999.0,  999.0,  999.0,  999.0,  999.0,  999.0,  999.0,  999.0,  999.0,  999.0,  999.0,  999.0,  999.0,  999.0
2010/03/01 13:30,  999.0,  999.0,    4.2,  999.0,    3.9,    2.4,    2.6,    2.9,    2.9,    3.6,    4.0,    4.0,    4.5,  999.0,  999.0,  999.0,    4.6,    4.8,    4.8,    4.5,    4.3,    4.3,    4.3,    3.3,    3.5,    3.2,    2.3,    1.1,    0.7,    0.3,   -0.4,   -0.4,    0.4,    0.8,    0.7,    0.6,  999.0,  999.0,  999.0,  999.0,  999.0,  999.0,  999.0,  999.0,   -3.9,  999.0,   -5.4,   -6.2,   -6.6,   -7.2,   -7.7,   -8.7,  999.0,  999.0,  999.0,   -9.1,  -10.0,  -11.5,  -12.4,   -9.7,  -10.3,  -10.6,  999.0,  999.0,  999.0,  999.0,  999.0,  999.0,  999.0,  999.0,  999.0,  999.0,  999.0,  999.0,  999.0,  999.0,  999.0,  999.0,  999.0,  999.0,  999.0,  999.0,  999.0,  999.0,  999.0,  999.0,  999.0,  999.0,  999.0,  999.0,  999.0,  999.0,  999.0,  999.0,  999.0,  999.0,  999.0,  999.0
2010/03/01 13:40,  999.0,  999.0,  999.0,    3.7,    3.8,    3.9,    3.4,    4.3,    4.5,    4.9,    5.1,    5.6,    5.7,    4.1,  999.0,    3.6,    4.5,    4.7,    4.8,    4.2,    4.4,    4.2,    3.7,    3.6,    3.5,    3.0,    2.0,    1.0,    0.2,   -0.3,   -1.0,   -1.2,   -0.6,    0.3,    0.1,   -0.2,  999.0,  999.0,  999.0,  999.0,  999.0,  999.0,  999.0,  999.0,   -3.5,  999.0,   -4.9,   -5.8,   -7.0,   -7.6,   -8.4,  999.0,  999.0,  999.0,  999.0,   -9.5,  -10.9,  -12.3,  -13.5,  -14.6,  999.0,  999.0,  999.0,  999.0,  999.0,  999.0,  999.0,  999.0,  999.0,  999.0,  999.0,  999.0,  999.0,  999.0,  999.0,  999.0,  999.0,  999.0,  999.0,  999.0,  999.0,  999.0,  999.0,  999.0,  999.0,  999.0,  999.0,  999.0,  999.0,  999.0,  999.0,  999.0,  999.0,  999.0,  999.0,  999.0,  999.0,  999.0
2010/03/01 13:50,    3.5,    3.8,    4.3,    4.1,    4.1,    4.0,    4.1,    4.0,    4.2,    4.5,    5.4,    5.4,    5.1,    5.5,  999.0,    3.5,    4.0,    4.3,    4.5,    3.8,    3.7,    3.7,    3.6,    3.7,    3.8,    2.8,    2.6,    1.6,    0.7,   -0.2,  999.0,   -0.8,    0.4,    0.8,    0.7,  999.0,  999.0,  999.0,  999.0,  999.0,  999.0,  999.0,  999.0,  999.0,  999.0,  999.0,   -4.9,   -5.7,   -6.8,   -7.6,   -8.0,   -8.4,  999.0,  999.0,   -8.2,   -9.9,  -11.5,  -12.9,  -14.8,  999.0,  999.0,  999.0,  999.0,  999.0,  999.0,  999.0,  999.0,  999.0,  999.0,  999.0,  999.0,  999.0,  999.0,  999.0,  999.0,  999.0,  999.0,  999.0,  999.0,  999.0,  999.0,  999.0,  999.0,  999.0,  999.0,  999.0,  999.0,  999.0,  999.0,  999.0,  999.0,  999.0,  999.0,  999.0,  999.0,  999.0,  999.0,  999.0
2010/03/01 14:00,  999.0,    4.4,    4.2,    4.4,    4.5,    4.1,    3.9,    4.3,    4.7,    5.4,  999.0,    2.1,    2.9,  999.0,  999.0,    3.9,    4.1,    4.3,    4.5,    4.3,  999.0,  999.0,  999.0,    4.0,    3.6,    2.5,    1.9,    0.7,    0.5,   -0.7,  999.0,   -1.0,   -0.8,  999.0,   -0.2,  999.0,  999.0,  999.0,  999.0,  999.0,  999.0,  999.0,  999.0,  999.0,  999.0,  999.0,   -4.5,   -5.9,   -7.1,   -7.4,   -8.2,  999.0,  999.0,  999.0,  999.0,  -10.4,  -12.1,  -13.7,  999.0,  999.0,  999.0,  999.0,  999.0,  999.0,  999.0,  999.0,  999.0,  999.0,  999.0,  999.0,  999.0,  999.0,  999.0,  999.0,  999.0,  999.0,  999.0,  999.0,  999.0,  999.0,  999.0,  999.0,  999.0,  999.0,  999.0,  999.0,  999.0,  999.0,  999.0,  999.0,  999.0,  999.0,  999.0,  999.0,  999.0,  999.0,  999.0,  999.0
2010/03/01 14:10,    4.1,    3.9,    5.1,    4.7,    4.6,    4.6,    4.7,    5.0,    5.0,    5.6,    4.5,  999.0,  999.0,  999.0,  999.0,    4.2,    4.2,    4.4,    4.5,    4.5,  999.0,    4.0,  999.0,    3.9,    3.4,    2.3,    1.4,    0.3,   -0.5,  999.0,  999.0,   -0.8,    0.8,    0.6,    0.4,  999.0,  999.0,  999.0,  999.0,  999.0,  999.0,  999.0,  999.0,  999.0,  999.0,  999.0,   -5.2,   -6.3,   -7.3,   -7.4,  999.0,  999.0,  999.0,  999.0,   -9.7,  -11.6,  999.0,  999.0,  999.0,  999.0,  999.0,  999.0,  999.0,  999.0,  999.0,  999.0,  999.0,  999.0,  999.0,  999.0,  999.0,  999.0,  999.0,  999.0,  999.0,  999.0,  999.0,  999.0,  999.0,  999.0,  999.0,  999.0,  999.0,  999.0,  999.0,  999.0,  999.0,  999.0,  999.0,  999.0,  999.0,  999.0,  999.0,  999.0,  999.0,  999.0,  999.0,  999.0
2010/03/01 14:20,  999.0,    4.6,    4.6,    4.3,    5.0,    5.1,    5.0,    5.1,    5.8,    5.8,  999.0,    0.1,   -0.0,    0.2,    0.7,    4.6,    4.2,    4.4,    4.7,    4.8,  999.0,  999.0,  999.0,    3.9,    3.5,    2.4,    1.6,    0.6,   -0.4,   -0.9,   -1.5,   -1.0,    0.2,    0.1,   -0.3,  999.0,  999.0,  999.0,  999.0,  999.0,  999.0,  999.0,  999.0,   -4.9,   -6.2,   -7.0,   -7.9,  999.0,  999.0,  999.0,  999.0,  999.0,  999.0,  -10.9,  -12.2,  -12.9,  999.0,  999.0,  999.0,  999.0,  999.0,  999.0,  999.0,  999.0,  999.0,  999.0,  999.0,  999.0,  999.0,  999.0,  999.0,  999.0,  999.0,  999.0,  999.0,  999.0,  999.0,  999.0,  999.0,  999.0,  999.0,  999.0,  999.0,  999.0,  999.0,  999.0,  999.0,  999.0,  999.0,  999.0,  999.0,  999.0,  999.0,  999.0,  999.0,  999.0,  999.0,  999.0
2010/03/01 14:30,  999.0,    5.7,    5.5,    5.9,  999.0,    5.3,    5.4,    5.6,    6.1,  999.0,  999.0,    6.4,  999.0,    1.1,    4.9,    4.6,    4.7,    4.7,    5.1,    4.8,    4.9,  999.0,  999.0,    3.5,    4.0,    2.7,    1.7,    1.0,    0.9,    0.9,   -0.5,  999.0,  999.0,   -0.6,   -0.9,   -1.1,  999.0,  999.0,  999.0,  999.0,  999.0,  999.0,  999.0,   -5.6,   -6.6,   -7.4,   -7.9,   -9.0,  999.0,  999.0,  999.0,  999.0,   -9.7,  -11.3,  999.0,  999.0,  999.0,  999.0,  999.0,  999.0,  999.0,  999.0,  999.0,  999.0,  999.0,  999.0,  999.0,  999.0,  999.0,  999.0,  999.0,  999.0,  999.0,  999.0,  999.0,  999.0,  999.0,  999.0,  999.0,  999.0,  999.0,  999.0,  999.0,  999.0,  999.0,  999.0,  999.0,  999.0,  999.0,  999.0,  999.0,  999.0,  999.0,  999.0,  999.0,  999.0,  999.0,  999.0
2010/03/01 14:40,  999.0,  999.0,    5.9,    5.9,    5.8,    5.5,    5.7,    5.6,    5.9,  999.0,  999.0,    2.9,  999.0,  999.0,  999.0,    4.8,    4.6,    4.9,    4.9,    5.1,  999.0,  999.0,  999.0,  999.0,    4.3,    3.4,    2.5,    1.3,    1.2,    0.4,   -0.4,   -0.7,  999.0,   -0.9,  999.0,  999.0,  999.0,   -2.7,  999.0,  999.0,  999.0,  999.0,  999.0,  999.0,  999.0,   -7.2,  999.0,  999.0,  999.0,  999.0,  999.0,  999.0,  999.0,  999.0,  999.0,  999.0,  999.0,  -16.5,  999.0,  999.0,  999.0,  999.0,  999.0,  999.0,  999.0,  999.0,  999.0,  999.0,  999.0,  999.0,  999.0,  999.0,  999.0,  999.0,  999.0,  999.0,  999.0,  999.0,  999.0,  999.0,  999.0,  999.0,  999.0,  999.0,  999.0,  999.0,  999.0,  999.0,  999.0,  999.0,  999.0,  999.0,  999.0,  999.0,  999.0,  999.0,  999.0,  999.0
2010/03/01 14:50,  999.0,  999.0,    5.4,    5.9,    5.5,    5.0,    4.9,    4.4,    4.7,    0.1,  999.0,    0.1,   -0.0,    0.2,    3.2,    4.6,    4.7,    4.9,    5.2,    4.8,    5.1,  999.0,  999.0,  999.0,    4.6,    4.4,    3.3,    1.9,    1.5,    1.1,    0.3,    0.0,  999.0,  999.0,   -0.2,   -0.3,  999.0,   -1.9,   -2.0,  999.0,  999.0,  999.0,  999.0,  999.0,  999.0,   -7.0,   -7.4,   -8.3,  999.0,  999.0,  999.0,  999.0,  999.0,  999.0,  999.0,  999.0,  999.0,  999.0,  999.0,  999.0,  999.0,  999.0,  999.0,  999.0,  999.0,  999.0,  999.0,  999.0,  999.0,  999.0,  999.0,  999.0,  999.0,  999.0,  999.0,  999.0,  999.0,  999.0,  999.0,  999.0,  999.0,  999.0,  999.0,  999.0,  999.0,  999.0,  999.0,  999.0,  999.0,  999.0,  999.0,  999.0,  999.0,  999.0,  999.0,  999.0,  999.0,  999.0
2010/03/01 15:00,  999.0,  999.0,  999.0,    6.4,    6.4,    6.3,    6.3,  999.0,   -0.0,  999.0,  999.0,  999.0,    2.5,  999.0,    3.6,  999.0,  999.0,    5.0,    5.0,    5.0,    5.4,    6.0,    5.4,    5.5,    5.4,    5.0,    3.6,    1.9,    1.3,    1.1,    0.4,  999.0,  999.0,  999.0,    0.7,    0.1,   -1.6,   -2.4,   -2.7,  999.0,  999.0,   -4.4,  999.0,   -4.5,   -5.7,   -6.8,   -7.1,   -8.3,  999.0,  999.0,  999.0,  999.0,   -8.8,   -9.6,  999.0,  999.0,  999.0,  999.0,  999.0,  999.0,  999.0,  999.0,  999.0,  999.0,  999.0,  999.0,  999.0,  999.0,  999.0,  999.0,  999.0,  999.0,  999.0,  999.0,  999.0,  999.0,  999.0,  999.0,  999.0,  999.0,  999.0,  999.0,  999.0,  999.0,  999.0,  999.0,  999.0,  999.0,  999.0,  999.0,  999.0,  999.0,  999.0,  999.0,  999.0,  999.0,  999.0,  999.0
2010/03/01 15:10,  999.0,    6.1,    6.3,    6.2,    6.6,    6.4,    6.5,    5.4,    4.3,    3.1,    4.1,    0.0,  999.0,  999.0,    2.8,  999.0,    5.4,    5.1,    5.1,    5.4,    5.2,    5.7,    5.6,    5.9,  999.0,    5.8,    4.0,    2.4,    1.7,  999.0,    0.1,  999.0,  999.0,  999.0,   -0.2,   -0.3,   -1.2,   -2.2,   -2.5,   -2.6,  999.0,  999.0,  999.0,  999.0,   -5.9,   -7.1,   -8.0,   -8.8,  999.0,  999.0,  999.0,  999.0,   -9.4,  -10.2,  -11.3,  999.0,  999.0,  999.0,  999.0,  999.0,  999.0,  999.0,  999.0,  999.0,  999.0,  999.0,  999.0,  999.0,  999.0,  999.0,  999.0,  999.0,  999.0,  999.0,  999.0,  999.0,  999.0,  999.0,  999.0,  999.0,  999.0,  999.0,  999.0,  999.0,  999.0,  999.0,  999.0,  999.0,  999.0,  999.0,  999.0,  999.0,  999.0,  999.0,  999.0,  999.0,  999.0,  999.0
2010/03/01 15:20,  999.0,  999.0,    6.0,    5.9,    5.4,    6.0,    6.1,    6.0,    5.3,    5.0,    5.3,  999.0,  999.0,  999.0,    5.4,    5.2,    5.2,    5.2,    5.2,    4.9,    5.1,    5.1,    5.1,    5.3,  999.0,    5.1,    4.8,    3.3,    1.9,    1.2,    0.3,   -0.7,  999.0,  999.0,  999.0,   -0.6,   -1.8,   -3.1,   -3.2,   -2.6,  999.0,  999.0,  999.0,  999.0,  999.0,   -6.0,   -7.2,   -7.9,   -7.9,  999.0,  999.0,  999.0,  999.0,  -10.6,  -12.3,  999.0,  999.0,  999.0,  999.0,  999.0,  999.0,  999.0,  999.0,  999.0,  999.0,  999.0,  999.0,  999.0,  999.0,  999.0,  999.0,  999.0,  999.0,  999.0,  999.0,  999.0,  999.0,  999.0,  999.0,  999.0,  999.0,  999.0,  999.0,  999.0,  999.0,  999.0,  999.0,  999.0,  999.0,  999.0,  999.0,  999.0,  999.0,  999.0,  999.0,  999.0,  999.0,  999.0
2010/03/01 15:30,  999.0,  999.0,    4.9,    5.9,    5.6,    5.1,    5.7,    4.8,    3.3,    1.6,    1.2,    0.5,    0.3,  999.0,  999.0,    5.1,    5.4,    5.9,    5.5,    5.0,    5.2,  999.0,    5.0,    4.8,    4.7,    4.9,    4.5,    2.7,  999.0,    0.8,   -0.6,  999.0,  999.0,   -0.1,   -0.9,   -1.5,   -2.1,   -2.2,   -2.5,   -2.8,  999.0,  999.0,  999.0,  999.0,  999.0,  999.0,   -6.9,  999.0,   -8.6,  999.0,  999.0,  999.0,  999.0,  -12.3,  -13.2,  -14.6,  999.0,  999.0,  999.0,  999.0,  999.0,  999.0,  999.0,  999.0,  999.0,  999.0,  999.0,  999.0,  999.0,  999.0,  999.0,  999.0,  999.0,  999.0,  999.0,  999.0,  999.0,  999.0,  999.0,  999.0,  999.0,  999.0,  999.0,  999.0,  999.0,  999.0,  999.0,  999.0,  999.0,  999.0,  999.0,  999.0,  999.0,  999.0,  999.0,  999.0,  999.0,  999.0
2010/03/01 15:40,  999.0,  999.0,  999.0,    6.4,    6.7,    5.7,    5.9,    6.7,    4.2,    3.5,    1.2,    2.2,    1.3,    1.4,  999.0,  999.0,    5.6,    6.4,    6.1,    5.2,    5.6,    5.4,    4.9,    4.9,    4.7,    4.5,    4.7,    2.0,    1.1,  999.0,  999.0,  999.0,   -0.7,   -1.2,   -1.8,   -2.1,   -2.0,   -2.1,  999.0,  999.0,  999.0,  999.0,  999.0,  999.0,  999.0,   -6.4,   -7.3,   -8.4,  999.0,  999.0,  999.0,  999.0,  999.0,  -11.8,  -13.6,  -15.9,  999.0,  999.0,  999.0,  999.0,  999.0,  999.0,  999.0,  999.0,  999.0,  999.0,  999.0,  999.0,  999.0,  999.0,  999.0,  999.0,  999.0,  999.0,  999.0,  999.0,  999.0,  999.0,  999.0,  999.0,  999.0,  999.0,  999.0,  999.0,  999.0,  999.0,  999.0,  999.0,  999.0,  999.0,  999.0,  999.0,  999.0,  999.0,  999.0,  999.0,  999.0,  999.0
2010/03/01 15:50,  999.0,  999.0,    3.2,    6.8,  999.0,    5.7,    5.4,    3.3,    3.8,    2.7,    3.6,    2.9,    4.6,    3.7,    3.7,    5.6,    5.9,  999.0,    6.4,    5.6,    5.0,    4.8,  999.0,    4.5,    4.2,    4.1,    3.8,    2.9,    0.7,    0.4,   -1.3,   -1.8,   -1.4,   -1.5,   -2.6,   -2.7,   -2.7,   -2.3,   -2.2,   -2.9,  999.0,  999.0,   -4.8,  999.0,   -5.1,  999.0,  999.0,   -7.3,   -8.5,  999.0,  999.0,  999.0,  999.0,  -13.4,  -14.5,  -15.6,  999.0,  -14.8,  -15.7,  999.0,  999.0,  999.0,  999.0,  999.0,  999.0,  999.0,  999.0,  999.0,  999.0,  999.0,  999.0,  999.0,  999.0,  999.0,  999.0,  999.0,  999.0,  999.0,  999.0,  999.0,  999.0,  999.0,  999.0,  999.0,  999.0,  999.0,  999.0,  999.0,  999.0,  999.0,  999.0,  999.0,  999.0,  999.0,  999.0,  999.0,  999.0,  999.0
2010/03/01 16:00,  999.0,    7.1,  999.0,    5.8,    6.3,  999.0,  999.0,    2.7,    0.3,    0.7,   -2.6,   -2.7,    1.8,    1.8,    2.0,  999.0,    5.7,    5.9,  999.0,  999.0,    5.4,    4.8,    5.1,  999.0,    4.4,    4.1,    3.8,    2.1,    1.0,    0.0,   -1.4,  999.0,   -1.6,   -2.3,   -3.1,   -3.5,   -3.0,   -2.8,  999.0,  999.0,  999.0,  999.0,   -4.2,  999.0,  999.0,  999.0,  999.0,  999.0,   -8.1,   -9.0,  999.0,  999.0,  999.0,  999.0,  999.0,  999.0,  999.0,  999.0,  999.0,  999.0,  999.0,  999.0,  999.0,  999.0,  999.0,  999.0,  999.0,  999.0,  999.0,  999.0,  999.0,  999.0,  999.0,  999.0,  999.0,  999.0,  999.0,  999.0,  999.0,  999.0,  999.0,  999.0,  999.0,  999.0,  999.0,  999.0,  999.0,  999.0,  999.0,  999.0,  999.0,  999.0,  999.0,  999.0,  999.0,  999.0,  999.0,  999.0
2010/03/01 16:10,  999.0,    7.1,    7.7,    8.0,    7.3,    4.5,    6.0,    6.3,    3.3,    2.2,    2.7,    2.7,   -0.0,  999.0,  999.0,  999.0,    6.4,    6.5,    5.6,  999.0,    4.9,    4.6,    4.6,  999.0,    4.0,    3.8,    3.8,    2.2,    1.0,    0.5,   -1.0,   -1.4,   -1.0,   -1.8,   -2.5,   -3.1,   -2.6,   -2.6,  999.0,  999.0,  999.0,  999.0,  999.0,  999.0,  999.0,  999.0,   -5.5,   -6.7,   -8.1,  999.0,  999.0,  999.0,  999.0,  999.0,  999.0,  -13.3,  -14.6,  -14.2,  -14.7,  999.0,  -14.7,  999.0,  -16.5,  999.0,  999.0,  999.0,  999.0,  999.0,  999.0,  999.0,  999.0,  999.0,  999.0,  999.0,  999.0,  999.0,  999.0,  999.0,  999.0,  999.0,  999.0,  999.0,  999.0,  999.0,  999.0,  999.0,  999.0,  999.0,  999.0,  999.0,  999.0,  999.0,  999.0,  999.0,  999.0,  999.0,  999.0,  999.0
2010/03/01 16:20,  999.0,  999.0,    7.6,    7.8,    5.2,  999.0,    6.6,    6.9,    7.2,    7.3,    7.2,  999.0,  999.0,  999.0,  999.0,    5.9,    5.7,    5.6,    5.5,    5.8,  999.0,    4.7,    4.5,    4.8,  999.0,    3.7,    3.4,    2.6,    1.4,    0.0,   -0.6,   -1.2,   -1.2,   -1.9,   -2.5,   -3.5,   -3.2,   -2.8,  999.0,  999.0,  999.0,  999.0,  999.0,  999.0,  999.0,  999.0,  999.0,  999.0,   -9.7,  999.0,  999.0,  999.0,  999.0,  999.0,  999.0,  999.0,  -15.2,  -15.5,  -15.2,  -14.8,  -15.8,  999.0,  999.0,  999.0,  999.0,  999.0,  999.0,  999.0,  999.0,  999.0,  999.0,  999.0,  999.0,  999.0,  999.0,  999.0,  999.0,  999.0,  999.0,  999.0,  999.0,  999.0,  999.0,  999.0,  999.0,  999.0,  999.0,  999.0,  999.0,  999.0,  999.0,  999.0,  999.0,  999.0,  999.0,  999.0,  999.0,  999.0
2010/03/01 16:30,  999.0,    4.7,    7.8,    6.8,    7.8,  999.0,    3.8,    6.0,    7.3,    7.3,  999.0,    7.2,  999.0,  999.0,  999.0,  999.0,    5.7,    5.8,    5.6,    5.5,    5.8,  999.0,    4.9,    4.6,  999.0,  999.0,    3.9,    4.0,    2.7,    1.6,    0.3,   -0.3,   -0.3,   -0.7,   -1.4,  999.0,   -3.0,   -2.6,  999.0,  999.0,   -2.7,   -3.6,   -4.0,  999.0,  999.0,   -5.0,   -6.1,   -7.0,   -8.3,   -9.6,  -11.1,  999.0,  999.0,  999.0,  999.0,  -13.8,  -14.1,  -13.7,  -14.2,  -15.2,  999.0,  999.0,  999.0,  999.0,  999.0,  999.0,  999.0,  999.0,  999.0,  999.0,  999.0,  999.0,  999.0,  999.0,  999.0,  999.0,  999.0,  999.0,  999.0,  999.0,  999.0,  999.0,  999.0,  999.0,  999.0,  999.0,  999.0,  999.0,  999.0,  999.0,  999.0,  999.0,  999.0,  999.0,  999.0,  999.0,  999.0,  999.0
2010/03/01 16:40,  999.0,  999.0,    7.5,    8.6,    8.5,    7.6,    5.1,    7.1,    5.4,    6.5,    5.7,    5.6,    2.3,  999.0,  999.0,  999.0,  999.0,    5.7,    5.7,  999.0,    5.7,  999.0,    4.8,    5.0,    4.4,    4.4,  999.0,  999.0,    2.0,    1.5,    0.7,    0.4,    0.3,   -0.3,   -0.8,   -2.4,   -2.5,   -2.6,   -2.4,  999.0,  999.0,   -3.3,   -3.8,   -4.9,   -4.6,   -5.2,   -5.6,   -6.1,  999.0,   -9.3,  999.0,  999.0,  999.0,  -15.3,  -16.8,  999.0,  999.0,  -13.1,  999.0,  999.0,  999.0,  999.0,  999.0,  999.0,  999.0,  999.0,  999.0,  999.0,  999.0,  999.0,  999.0,  999.0,  999.0,  999.0,  999.0,  999.0,  999.0,  999.0,  999.0,  999.0,  999.0,  999.0,  999.0,  999.0,  999.0,  999.0,  999.0,  999.0,  999.0,  999.0,  999.0,  999.0,  999.0,  999.0,  999.0,   -9.9,   -8.6,   -7.6
2010/03/01 16:50,  999.0,    7.9,    7.7,    8.0,    8.1,    7.7,    7.0,    6.9,  999.0,    6.7,    7.1,    6.9,    2.4,  999.0,   -0.1,  999.0,    5.4,    5.2,    5.2,    4.9,    5.0,    5.3,  999.0,    4.1,    4.4,    4.4,    4.3,    4.0,  999.0,    3.0,    1.6,    0.3,   -0.1,    0.5,    0.1,   -1.3,   -2.1,   -2.7,   -2.2,   -2.3,  999.0,  999.0,   -3.2,   -4.0,   -4.8,   -5.1,   -5.7,   -6.2,   -7.7,   -9.0,  -10.3,  -12.0,  -13.4,  -14.5,  -15.4,  -16.1,  999.0,  -16.5,  -17.4,  999.0,  -17.0,  999.0,  999.0,  999.0,  999.0,  999.0,  999.0,  999.0,  999.0,  999.0,  999.0,  999.0,  999.0,  999.0,  999.0,  999.0,  999.0,  999.0,  999.0,  999.0,  999.0,  999.0,  999.0,  999.0,  999.0,  999.0,  999.0,  999.0,  999.0,  999.0,  -14.7,  -15.4,  -15.0,  -13.3,  -11.3,  -10.1,  999.0,   -6.4
2010/03/01 17:00,  999.0,    7.2,    6.8,    7.3,    7.4,    7.2,    6.7,    6.4,    6.6,    6.7,    6.6,    6.4,  999.0,  999.0,  999.0,  999.0,  999.0,    5.2,    4.7,  999.0,  999.0,  999.0,  999.0,    4.2,    4.5,    4.3,    4.0,    4.3,    4.5,    3.5,    1.5,    1.0,   -0.2,    0.4,    0.1,   -1.3,   -2.1,   -3.0,   -2.2,   -2.3,   -2.8,   -3.4,   -3.9,   -4.5,   -5.3,   -5.8,   -5.8,   -6.7,   -8.1,   -9.2,  -10.0,  -10.7,  999.0,  -13.6,  -14.2,  -15.2,  999.0,  -17.1,  -17.9,  -18.7,  -18.3,  999.0,  999.0,  999.0,  -15.5,  999.0,  999.0,  999.0,  999.0,  999.0,  999.0,  999.0,  999.0,  999.0,  999.0,  999.0,  999.0,  999.0,  999.0,  999.0,  999.0,  999.0,  999.0,  999.0,  999.0,  -13.0,  -13.2,  -14.0,  -14.8,  -15.3,  -14.9,  -14.1,  -12.3,  -11.7,  -10.7,   -8.8,   -7.3,   -6.3
2010/03/01 17:10,  999.0,    8.7,    8.7,    8.3,    7.5,    6.9,    6.8,    7.1,    7.1,    7.1,    7.4,  999.0,  999.0,  999.0,  999.0,    5.7,    5.6,    5.4,    5.2,    5.2,  999.0,    4.6,    4.9,    5.3,  999.0,    4.8,    4.7,    5.0,    5.0,    4.4,    2.1,    1.2,    0.4,    0.9,    0.2,   -1.0,   -2.6,   -2.4,   -2.0,   -3.0,   -3.1,   -3.8,   -4.9,   -5.2,   -6.8,   -7.6,   -8.2,   -8.9,   -9.5,  -10.3,  -11.0,  -11.4,  -12.5,  -13.3,  -13.9,  -15.2,  -16.5,  -18.0,  -18.7,  999.0,  -17.9,  -17.5,  -18.6,  999.0,  999.0,  999.0,  999.0,  999.0,  999.0,  999.0,  999.0,  999.0,  999.0,  999.0,  999.0,  999.0,  999.0,  999.0,  999.0,  999.0,  999.0,  999.0,  999.0,  999.0,  -12.1,  -13.0,  -13.6,  -13.9,  -13.6,  -13.3,  -13.0,  -11.8,  -10.0,   -8.5,   -8.0,   -7.7,   -7.3,   -6.5
2010/03/01 17:20,  999.0,    8.2,    8.4,    7.8,    7.0,    6.8,    6.9,    7.2,    7.3,    7.1,  999.0,  999.0,  999.0,  999.0,  999.0,    5.8,    5.6,    5.0,    5.1,    5.4,  999.0,    4.8,    4.8,    4.6,    5.3,    4.9,    4.7,    4.6,    4.6,    3.8,    1.0,   -0.1,   -0.2,   -0.6,   -1.6,   -2.5,   -3.2,  999.0,  999.0,  999.0,  999.0,   -5.6,   -5.6,   -6.7,   -8.0,   -8.4,   -9.2,   -9.4,   -9.2,   -9.3,  -10.2,  -10.6,  -11.1,  -12.8,  -13.9,  -14.3,  -13.9,  -15.2,  -16.2,  -15.6,  -14.9,  -14.6,  -14.2,  999.0,  999.0,  999.0,  -13.7,  -14.8,  -15.5,  999.0,  999.0,  999.0,  999.0,  999.0,  999.0,  -13.5,  -13.1,  -12.0,  -11.1,   -9.8,   -9.3,  -10.5,  -11.0,  -12.7,  -14.0,  -14.8,  -15.1,  -14.6,  -13.0,  -11.5,  -10.0,   -8.8,   -8.1,   -7.6,   -7.3,   -7.3,   -7.0,   -6.4
2010/03/01 17:30,  999.0,    7.8,    8.4,    7.8,    6.7,    6.7,    6.9,    5.2,    7.4,    5.9,    2.2,    0.1,   -0.0,    0.6,  999.0,  999.0,  999.0,    6.1,    6.1,    5.6,  999.0,    5.0,    5.4,    5.8,    5.9,  999.0,    5.2,    5.8,    3.7,    2.5,    1.6,    0.7,    0.2,   -0.9,   -2.6,   -2.4,   -2.9,  999.0,  999.0,  999.0,   -4.6,  999.0,  999.0,  999.0,   -8.3,   -8.8,   -8.3,   -8.5,   -9.2,   -9.3,  -10.3,  -10.6,  -10.8,  -12.3,  -12.3,  -12.7,  -12.5,  -13.9,  -15.4,  -15.1,  -14.8,  -13.6,  999.0,  -14.1,  -13.2,  -13.8,  999.0,  999.0,  999.0,  999.0,  999.0,  999.0,  999.0,  999.0,  999.0,  999.0,  -13.1,  -13.9,  -12.5,  -12.3,  -11.5,  -12.3,  -12.8,  -13.2,  -13.6,  -13.8,  -13.3,  -13.3,  -12.4,  -10.9,   -9.9,   -9.2,   -8.1,   -7.2,   -6.2,   -5.9,   -6.3,   -6.1
2010/03/01 17:40,  999.0,  999.0,    7.8,  999.0,  999.0,    6.6,    6.4,    6.7,    7.0,    6.8,    7.4,  999.0,  999.0,    4.2,  999.0,    6.2,  999.0,    6.7,    7.1,  999.0,    6.3,  999.0,    5.8,    6.1,    6.0,  999.0,    5.8,    5.9,  999.0,    3.3,    2.5,    1.7,    1.3,    0.8,   -0.8,   -2.1,   -2.2,  999.0,  999.0,   -4.5,   -4.7,   -5.9,   -6.9,   -9.3,   -9.2,  -10.5,   -9.4,  -10.2,  -11.2,  -11.8,  -11.7,  -12.5,  -13.3,  -13.5,  -13.1,  -12.9,  -13.2,  -13.7,  -13.4,  -12.8,  -12.7,  -12.4,  -12.3,  -11.5,  -10.9,  -10.8,  -10.8,  -11.1,  -10.4,  -10.7,  -10.8,  -10.4,  -11.0,  -12.6,  -13.3,  -12.3,  -14.4,  -14.9,  -13.3,  999.0,  999.0,  999.0,  999.0,  999.0,  999.0,  999.0,  999.0,  999.0,  -12.4,  -11.6,  -11.0,  -10.3,   -8.9,   -9.1,   -8.4,   -8.1,   -8.2,  999.0
2010/03/01 17:50,  999.0,    7.1,    7.0,    6.4,    6.8,    6.3,    6.0,    6.1,    6.5,    6.5,    6.6,  999.0,    6.6,  999.0,  999.0,    6.1,    6.3,    6.4,    6.5,  999.0,    5.7,    5.8,  999.0,    6.1,    5.7,    6.4,    6.2,  999.0,    6.1,    4.7,    3.4,    1.5,    1.7,    1.5,   -0.6,  999.0,  999.0,  999.0,  999.0,  999.0,   -3.5,   -4.1,   -4.5,   -4.0,   -4.7,   -5.5,   -5.9,   -6.6,  999.0,  999.0,  -10.3,  999.0,  999.0,  999.0,  999.0,  -10.5,  -11.5,  -11.6,  -11.7,  -11.3,  -11.4,  -11.0,  -10.3,   -9.9,  999.0,  999.0,  999.0,  999.0,  999.0,  999.0,  999.0,  999.0,  999.0,  999.0,  999.0,  -16.1,  -16.5,  -15.4,  -14.9,  999.0,  999.0,  999.0,  999.0,  999.0,  999.0,  999.0,  999.0,  999.0,  999.0,  999.0,  999.0,  999.0,  999.0,  999.0,  999.0,  999.0,  999.0,  999.0
2010/03/01 18:00,  999.0,    6.9,    6.3,    6.3,    6.3,    6.4,    5.6,    5.3,    5.9,    6.5,    6.7,    6.6,  999.0,  999.0,    6.4,    6.1,    6.3,    6.7,    6.9,  999.0,    5.7,    6.1,  999.0,    5.9,    6.4,    6.3,    6.5,  999.0,    6.1,  999.0,  999.0,  999.0,    1.8,    0.4,  999.0,   -2.2,   -1.8,  999.0,  999.0,   -2.8,   -3.4,   -3.8,   -3.8,   -4.3,   -5.2,   -6.6,   -7.5,  999.0,  999.0,  999.0,  -10.2,   -9.5,   -8.9,  -10.5,  -12.2,  -13.9,  -15.7,  -16.5,  -17.7,  -17.6,  -16.2,  -16.0,  -15.4,  -12.8,  -10.6,  -10.3,  -10.7,  -11.4,  -11.8,  -12.3,  -12.6,  -13.3,  -12.7,  -14.3,  -14.0,  -13.8,  -16.7,  -15.2,  -16.5,  -15.8,  -15.6,  -14.0,  -14.6,  -13.3,  -13.3,  -13.2,  -13.0,  -13.6,  -13.5,  999.0,  999.0,  999.0,  999.0,  999.0,  999.0,  999.0,  999.0,  999.0
2010/03/01 18:10,  999.0,  999.0,  999.0,    4.6,    5.8,  999.0,    5.0,    5.2,    5.9,    6.0,    6.5,  999.0,  999.0,  999.0,  999.0,  999.0,    6.3,    6.8,    6.9,    5.9,    5.9,    6.4,    6.5,    6.2,    6.4,    7.1,  999.0,  999.0,  999.0,  999.0,  999.0,    2.9,    1.8,   -0.1,   -1.6,   -1.3,   -1.6,   -2.7,   -2.7,   -2.9,   -2.7,   -3.4,   -3.4,   -3.5,   -4.5,   -4.0,  999.0,  999.0,   -7.2,   -9.5,   -8.6,   -7.8,   -8.9,  -10.8,  -11.0,  -12.1,  -13.1,  -14.7,  -15.7,  -17.6,  -16.8,  -16.8,  -14.4,  -15.4,  999.0,  999.0,  999.0,  999.0,  999.0,  999.0,  999.0,  999.0,  -11.9,  999.0,  -13.0,  -15.4,  -15.3,  -16.8,  999.0,  999.0,  999.0,  999.0,  999.0,  999.0,  999.0,  999.0,  999.0,  999.0,  999.0,  999.0,  999.0,  999.0,  999.0,  999.0,  999.0,  999.0,  999.0,  999.0
2010/03/01 18:20,  999.0,  999.0,  999.0,  999.0,    1.4,  999.0,  999.0,    1.3,    4.6,    4.1,  999.0,    3.2,    3.4,    1.8,    3.7,    2.9,    6.3,    6.0,    6.4,    4.4,    5.5,    5.5,  999.0,    6.6,  999.0,    7.8,  999.0,  999.0,    7.4,  999.0,    5.0,  999.0,    2.9,    1.0,   -0.6,   -1.1,   -0.9,   -1.5,   -1.6,   -2.1,   -3.3,   -3.6,   -3.1,   -2.0,   -0.8,   -4.3,   -6.1,   -7.2,   -6.9,   -7.5,   -8.1,   -8.4,  -10.3,  -11.1,  -11.4,  -12.9,  -12.8,  999.0,  999.0,  -19.5,  -19.2,  -18.0,  -16.0,  -14.0,  -13.6,  -11.2,  -10.6,  -10.4,  -10.9,  -11.7,  -12.2,  -13.2,  -14.4,  -15.9,  -17.0,  -16.4,  -17.8,  -16.6,  -16.9,  -17.9,  -18.1,  999.0,  999.0,  999.0,  999.0,  999.0,  999.0,  999.0,  999.0,  999.0,  999.0,  999.0,  999.0,  999.0,  999.0,  999.0,  999.0,  999.0
2010/03/01 18:30,  999.0,  999.0,  999.0,  999.0,  999.0,    2.0,    2.8,  999.0,    4.8,    4.4,  999.0,    4.7,  999.0,  999.0,  999.0,  999.0,  999.0,    5.6,    6.0,  999.0,  999.0,  999.0,  999.0,    6.4,  999.0,  999.0,  999.0,  999.0,  999.0,  999.0,  999.0,  999.0,  999.0,   -1.2,  999.0,   -1.5,   -1.4,   -2.4,   -3.2,   -3.0,   -2.8,   -2.3,   -1.1,   -3.0,   -2.5,   -2.6,   -2.9,   -4.9,   -5.7,   -6.8,   -7.7,   -8.5,   -9.1,  -11.3,  -13.4,  -13.7,  -14.0,  -13.9,  999.0,  999.0,  999.0,  -14.9,  -14.0,  -13.4,  -13.8,  -14.4,  -14.5,  -14.2,  -12.2,  -12.9,  -12.0,  -11.9,  -11.7,  -11.5,  -11.2,  -11.3,  -11.5,  -11.6,  -12.2,  -12.4,  -12.5,  999.0,  -14.9,  999.0,  999.0,  999.0,  999.0,  999.0,  999.0,  999.0,  999.0,  999.0,  999.0,  999.0,  999.0,  999.0,  999.0,  999.0
2010/03/01 18:40,  999.0,  999.0,  999.0,    2.5,  999.0,    3.8,    4.9,    5.5,    5.4,    5.6,    6.0,    6.5,  999.0,  999.0,  999.0,  999.0,    6.3,  999.0,  999.0,  999.0,  999.0,    5.9,    6.3,  999.0,    7.5,  999.0,  999.0,  999.0,  999.0,    4.8,  999.0,  999.0,    0.3,   -1.2,   -2.0,   -2.5,   -2.4,   -2.6,   -3.1,   -2.7,   -2.3,   -2.1,   -2.5,   -2.5,   -1.9,   -1.9,   -2.5,   -3.7,   -5.1,   -7.0,  999.0,  999.0,  999.0,  -11.1,  -12.1,  -12.9,  -15.5,  -17.1,  999.0,  999.0,  -16.8,  -16.6,  999.0,  999.0,  999.0,  999.0,  -15.8,  999.0,  999.0,  999.0,  -10.9,  999.0,  -10.8,  -10.9,  -11.7,  -11.3,  -11.0,   -9.8,   -9.9,  -10.2,  -10.8,  999.0,  999.0,  999.0,  999.0,  999.0,  999.0,  999.0,  999.0,  999.0,  999.0,  999.0,  999.0,  999.0,  999.0,  999.0,  999.0,  999.0
2010/03/01 18:50,  999.0,  999.0,    0.2,    1.4,    3.9,    3.3,    3.8,    4.9,    5.4,    5.2,    5.7,    6.1,    6.4,  999.0,    5.6,  999.0,    6.4,    5.6,  999.0,  999.0,    5.1,  999.0,    5.7,    6.9,  999.0,  999.0,   -0.2,  999.0,  999.0,   -1.2,   -2.5,   -2.6,  999.0,   -2.8,   -5.5,   -6.3,   -6.5,   -5.8,   -7.8,   -4.0,   -7.0,   -5.6,   -5.1,   -7.2,   -5.2,   -4.2,   -3.2,   -4.1,   -5.3,   -7.3,   -8.2,  999.0,  -11.7,  -13.7,  -14.8,  -16.2,  -17.0,  -16.9,  -17.3,  -16.4,  999.0,  999.0,  999.0,  999.0,  999.0,  -11.3,  -10.9,  -10.8,   -9.4,   -9.4,   -9.7,  -11.2,  -11.6,  -11.8,  -11.7,  -11.3,  -11.0,  -11.4,  -11.2,  -11.1,  -11.2,  -11.4,  -11.8,  -12.5,  -12.6,  -12.4,  -12.3,  -12.5,  999.0,  999.0,  -12.2,  999.0,  999.0,  999.0,  999.0,  999.0,  999.0,  999.0
2010/03/01 19:00,  999.0,   -0.0,   -0.1,    1.5,    2.2,    3.3,    3.1,    3.7,    4.6,    5.1,    5.1,    5.4,   -2.3,  999.0,  999.0,  999.0,  999.0,  999.0,    5.7,    6.3,    5.8,    5.5,    4.8,    6.1,    5.7,    5.8,    5.5,    4.6,    3.8,    3.5,    2.8,    0.8,   -0.1,   -1.4,   -1.9,   -2.0,   -2.2,   -0.8,   -0.5,   -0.5,   -0.5,   -0.7,   -1.0,   -1.8,  999.0,   -1.8,   -2.3,  999.0,   -5.7,   -8.1,   -9.3,  -10.7,  -12.2,  -13.3,  -14.0,  -13.1,  -12.8,  -11.8,  -11.0,  -11.7,  -10.4,  -10.7,  -10.1,   -9.3,   -8.9,   -7.8,   -7.6,   -7.3,   -6.8,   -6.8,   -6.4,   -6.8,   -7.4,   -7.5,  999.0,  -10.4,  -11.9,  -13.1,  -14.0,  -14.5,  -14.7,  -14.9,  -15.2,  -15.4,  -15.5,  -15.3,  -15.6,  -14.7,  -14.6,  -14.3,  -13.9,  -13.1,  -12.8,  -12.3,  -12.8,  -13.0,  -13.2,  999.0
2010/03/01 19:10,   -0.8,  999.0,   -0.0,    2.6,    3.7,    4.5,    3.7,    4.1,    5.3,    5.7,    5.9,    5.5,    5.3,    4.4,    4.7,    4.9,    5.8,    5.2,    5.3,    5.3,    5.0,    6.0,    6.1,    5.6,    5.6,    5.2,    4.7,    4.4,    3.8,    3.6,    2.4,    0.3,   -1.0,   -1.3,   -1.7,   -1.9,   -1.1,   -0.5,    0.6,  999.0,  999.0,   -2.4,   -2.9,  999.0,  999.0,   -7.8,   -8.2,   -9.3,   -9.7,  -10.3,  -11.7,  -11.2,  -11.6,  -11.3,  -11.6,  -11.4,  -10.4,  999.0,   -9.3,   -8.2,   -8.1,   -8.7,   -8.7,   -7.2,   -6.5,   -5.8,   -5.5,   -5.4,   -4.7,   -4.2,   -3.8,   -3.6,   -3.6,   -4.2,   -4.3,   -5.7,   -9.0,  -10.2,  -11.4,  -12.0,  -12.6,  -13.1,  -13.5,  -13.6,  -13.8,  -14.1,  -14.3,  -14.4,  -15.1,  -15.9,  -16.5,  -16.5,  -16.1,  -15.1,  -13.8,  -13.1,  -13.1,  999.0
2010/03/01 19:20,   -0.7,    0.5,   -0.5,    0.2,    2.3,    3.0,    3.9,    3.3,    3.3,    3.7,    4.3,    4.1,    4.1,    3.7,    3.9,    3.9,    3.7,    3.5,    4.3,    3.4,    4.1,    3.3,    3.7,    3.3,    3.7,    3.6,    3.2,    2.8,    2.9,    1.8,   -0.2,   -1.7,   -1.9,   -2.1,   -1.6,   -1.5,   -1.0,   -1.2,   -1.2,   -1.9,   -3.8,   -4.3,   -6.3,  999.0,  999.0,  -13.9,  -15.4,  -17.3,  -17.1,  -15.8,  -15.1,  -12.9,  -11.8,  -10.8,   -8.9,   -8.7,   -7.0,   -6.4,   -5.8,   -5.0,   -4.3,   -3.0,   -1.5,   -0.8,   -0.7,   -0.7,   -0.6,   -0.5,   -0.2,   -0.5,   -0.4,   -0.7,   -0.8,   -1.3,   -1.9,   -2.7,   -2.6,   -3.2,   -3.3,   -3.6,   -4.2,   -5.0,  999.0,   -8.9,   -8.5,  999.0,  999.0,  999.0,  999.0,  999.0,  999.0,  999.0,  999.0,  999.0,  999.0,  -16.0,  -15.6,  -14.9
2010/03/01 19:30,    1.7,    1.5,    1.3,    2.0,    3.0,    2.8,    2.8,    3.2,    4.0,    3.0,    3.9,    4.5,    4.9,    5.0,    4.3,    4.9,    5.8,    4.5,    5.4,    5.2,    5.2,    4.6,    5.0,    4.7,    3.7,    2.8,    2.5,    1.8,   -3.4,   -4.0,   -5.7,   -4.5,   -5.2,   -5.9,   -4.8,   -6.8,   -5.4,   -6.5,   -5.1,   -5.8,   -6.9,   -6.3,   -7.5,   -8.3,  999.0,  999.0,  999.0,  -13.3,  -12.5,  -12.0,  -11.1,  -10.1,   -8.8,   -8.6,   -6.5,   -7.5,   -6.3,   -7.6,   -7.3,   -5.6,   -6.0,   -6.0,   -4.7,   -4.3,   -3.7,   -2.7,   -2.3,   -1.4,   -0.7,   -0.4,   -0.5,   -1.0,   -0.4,   -0.3,   -0.1,   -0.2,   -0.2,   -0.4,   -0.5,   -1.4,  999.0,  999.0,  999.0,  999.0,  999.0,  999.0,  999.0,  999.0,  999.0,  999.0,  999.0,  999.0,  999.0,  999.0,  999.0,  999.0,  999.0,  999.0
2010/03/01 19:40,    1.7,    2.3,    1.4,    2.2,    3.3,    2.6,    3.4,    2.9,    3.0,    2.7,    3.6,    4.2,    4.6,    5.5,    5.3,    5.2,    5.4,    4.7,    6.3,    5.3,    4.1,    4.0,    4.2,    4.3,    4.1,    3.8,    3.6,    1.5,    0.8,   -0.8,   -1.0,   -0.8,   -0.9,   -1.1,   -1.3,   -0.7,   -0.5,   -1.0,   -1.0,   -2.7,   -2.4,   -2.9,   -2.9,  999.0,  999.0,  999.0,  999.0,  999.0,   -7.5,   -7.7,   -8.3,   -7.9,   -8.4,  999.0,  999.0,  999.0,   -7.4,  999.0,  999.0,   -8.0,   -9.9,   -8.1,   -8.1,   -9.7,   -9.6,   -8.8,   -8.8,   -8.4,   -7.8,   -7.3,   -6.3,   -5.0,   -5.4,   -4.5,   -4.3,   -4.4,   -3.8,   -2.9,   -3.1,   -3.2,   -4.0,   -4.7,   -3.6,   -4.2,   -4.6,   -5.1,  999.0,  999.0,  999.0,  999.0,  999.0,  999.0,  999.0,  999.0,  999.0,  999.0,  999.0,  999.0
2010/03/01 19:50,    2.6,    2.4,    1.9,    2.5,    3.9,    3.4,    3.6,    4.2,    4.3,    4.8,    5.0,    4.9,    5.2,    4.9,    5.9,    6.7,    6.3,    4.8,    5.6,    4.6,    4.8,    2.0,    3.0,    3.9,    3.2,    1.9,    1.5,    1.0,   -0.4,  999.0,   -2.5,   -2.8,   -4.1,   -3.6,   -6.5,   -4.1,   -4.2,  999.0,   -5.8,  999.0,  999.0,  999.0,  999.0,  999.0,  999.0,  999.0,  999.0,   -7.2,   -6.0,   -6.3,   -6.7,   -7.9,   -8.3,   -7.3,   -7.0,   -7.2,  999.0,  999.0,  999.0,   -7.1,   -7.4,   -8.9,   -9.9,  -10.5,  999.0,  999.0,  999.0,  999.0,  999.0,  999.0,  999.0,  999.0,  999.0,  999.0,  999.0,  999.0,  999.0,  999.0,   -4.1,   -3.2,   -3.1,   -3.7,  999.0,   -4.5,   -4.9,  999.0,  999.0,  999.0,  999.0,  999.0,  999.0,  999.0,  999.0,  999.0,  999.0,  999.0,  999.0,  999.0
2010/03/01 20:00,    2.8,    2.5,    2.6,    2.4,    3.9,    3.8,    3.6,    3.1,    4.1,    3.7,   -0.6,  999.0,  999.0,    1.3,    2.9,    2.9,  999.0,  999.0,  999.0,  999.0,    2.5,    5.1,    5.3,    2.1,    1.9,    1.5,   -0.4,   -0.6,   -1.7,   -2.6,   -3.5,   -4.2,   -4.8,   -5.0,   -4.3,   -4.0,   -5.2,   -5.8,   -6.5,   -6.5,   -6.0,   -5.6,   -5.9,   -5.3,   -5.6,   -5.5,   -4.9,   -5.0,   -4.6,   -4.7,   -5.0,   -5.2,   -4.8,   -4.6,   -4.5,   -4.8,   -4.9,   -5.8,   -6.6,   -7.5,   -8.6,  -10.2,  -11.2,  -12.6,  999.0,  999.0,  999.0,  999.0,  999.0,  999.0,  999.0,  999.0,  999.0,  999.0,  999.0,  999.0,  999.0,  999.0,  999.0,  999.0,  999.0,  999.0,  999.0,  999.0,  999.0,  999.0,  999.0,  999.0,  999.0,  999.0,  999.0,  999.0,  999.0,  999.0,  999.0,  999.0,  999.0,  999.0
2010/03/01 20:10,   -3.6,   -2.1,    4.2,    2.7,  999.0,  999.0,    4.0,    2.4,    4.5,  999.0,    4.3,    5.6,    4.8,    3.8,    6.7,    3.4,    3.0,    4.9,    3.7,  999.0,    5.0,    4.5,    3.8,    2.7,    1.2,    1.8,    0.5,    0.8,   -1.4,   -3.0,   -2.0,    0.1,   -0.4,   -0.8,   -4.1,   -5.6,   -7.0,   -7.8,   -7.7,   -7.5,   -7.6,   -7.1,   -7.8,  999.0,  999.0,  999.0,  999.0,   -5.8,   -4.7,   -4.8,   -3.9,   -4.0,   -4.6,   -3.6,   -3.6,   -4.2,   -5.4,   -6.2,   -6.7,   -8.5,   -9.6,  -10.8,  999.0,  -12.8,  999.0,  999.0,  999.0,  999.0,  999.0,  999.0,  999.0,  999.0,  999.0,  999.0,  999.0,  999.0,  999.0,  999.0,  999.0,  999.0,  999.0,  999.0,  999.0,  999.0,  999.0,  999.0,  999.0,  999.0,  999.0,  999.0,  999.0,  999.0,  999.0,  999.0,  999.0,  999.0,  999.0,  999.0
2010/03/01 20:20,   -0.4,    2.8,    8.1,    1.7,    5.0,    4.3,    2.9,    3.1,    3.4,    3.1,    4.3,    5.7,   -5.6,   -5.3,    6.8,    6.7,    8.5,    8.8,    8.3,  999.0,  999.0,   10.8,    5.4,    4.0,  999.0,  999.0,  999.0,   -0.2,  999.0,  999.0,   -2.1,   -1.9,   -2.5,   -2.8,   -5.3,  999.0,  999.0,  999.0,  999.0,  999.0,  999.0,  999.0,  999.0,  999.0,  999.0,  999.0,  999.0,  999.0,  999.0,   -3.4,   -2.6,   -3.8,   -4.6,   -5.4,  999.0,   -8.4,   -8.7,  999.0,  -11.2,  999.0,  999.0,  999.0,  999.0,  999.0,  999.0,  -15.1,  999.0,  999.0,  999.0,  999.0,  999.0,  999.0,  999.0,  999.0,  999.0,  999.0,  999.0,  999.0,  999.0,  999.0,  999.0,  999.0,  999.0,  999.0,  999.0,  999.0,  999.0,  999.0,  999.0,  999.0,  999.0,  999.0,  999.0,  999.0,  999.0,  999.0,  999.0,  999.0
2010/03/01 20:30,  999.0,  999.0,  999.0,  999.0,  999.0,  999.0,    2.1,    2.7,    3.1,    3.8,    3.7,    4.2,    3.7,    4.5,    5.4,    4.7,    4.8,    4.9,    5.4,    5.0,    4.7,    4.3,    3.9,    3.2,    2.3,    1.3,  999.0,  999.0,  999.0,  999.0,  999.0,   -2.1,   -3.7,   -4.0,   -4.5,   -5.1,  999.0,  999.0,  999.0,  999.0,  999.0,  999.0,  999.0,  999.0,  999.0,  999.0,  999.0,  999.0,   -5.7,   -5.3,   -6.8,  999.0,  999.0,  999.0,  999.0,  999.0,  999.0,  -16.0,  999.0,  999.0,  999.0,  -17.9,  999.0,  999.0,  999.0,  -13.1,  999.0,  999.0,  999.0,  999.0,  999.0,  999.0,  999.0,  999.0,  999.0,  999.0,  999.0,  999.0,  999.0,  999.0,  999.0,  999.0,  999.0,  999.0,  999.0,  999.0,  999.0,  999.0,  999.0,  999.0,  999.0,  999.0,  999.0,  999.0,  999.0,  999.0,  999.0,  999.0
2010/03/01 20:40,    1.5,    1.7,    3.9,    1.3,    2.7,    3.0,    3.2,    3.8,    3.5,    4.4,    4.3,    4.1,    4.7,    5.2,    5.4,    5.0,    5.3,    4.9,    4.6,    4.4,    4.3,    4.1,    3.6,    3.5,    2.7,    2.1,    1.6,  999.0,  999.0,  999.0,  999.0,  999.0,  999.0,   -2.7,  999.0,  999.0,  999.0,  999.0,  999.0,  999.0,  999.0,  999.0,  999.0,  999.0,  999.0,  999.0,  999.0,  999.0,  999.0,  999.0,  999.0,  999.0,  999.0,  999.0,  999.0,  999.0,  999.0,  999.0,  999.0,  999.0,  999.0,  999.0,  999.0,  999.0,  999.0,  999.0,  999.0,  999.0,  999.0,  999.0,  999.0,  999.0,  999.0,  999.0,  999.0,  999.0,  999.0,  999.0,  999.0,  999.0,  999.0,  999.0,  999.0,  999.0,  999.0,  999.0,  999.0,  999.0,  999.0,  999.0,  999.0,  999.0,  999.0,  999.0,  999.0,  999.0,  999.0,  999.0
2010/03/01 20:50,    1.3,  999.0,    2.2,  999.0,    2.5,  999.0,    3.6,    4.3,    4.5,    4.5,    4.5,    4.7,    4.5,    4.3,  999.0,  999.0,    4.3,    4.2,    4.0,    4.1,    3.4,    3.3,    2.9,    2.3,    1.3,    0.2,   -0.5,  999.0,  999.0,  999.0,   -4.3,   -4.6,   -4.8,   -4.6,   -5.1,  999.0,  999.0,  999.0,   -4.5,  999.0,  999.0,  999.0,  999.0,  999.0,  999.0,  999.0,  999.0,  999.0,  999.0,  999.0,  999.0,   -8.8,  999.0,  999.0,  999.0,  999.0,  999.0,  999.0,  999.0,  999.0,  999.0,  999.0,  999.0,  999.0,  999.0,  999.0,  999.0,  999.0,  999.0,  999.0,  999.0,  999.0,  999.0,  999.0,  999.0,  999.0,   -7.2,   -7.3,   -7.4,   -7.2,   -7.6,   -8.5,  999.0,  999.0,  999.0,  999.0,  999.0,  999.0,  999.0,  999.0,  999.0,  999.0,  999.0,  999.0,  999.0,  999.0,  999.0,  999.0
2010/03/01 21:00,  999.0,  999.0,  999.0,  999.0,  999.0,  999.0,    4.2,  999.0,  999.0,    3.9,    4.5,    4.2,    4.1,    4.2,    4.3,  999.0,    3.7,    3.5,    3.7,    2.6,    2.3,    3.0,    3.2,    3.0,    2.6,    1.0,   -0.8,   -0.5,  999.0,  999.0,   -2.8,   -3.8,   -4.6,  999.0,  999.0,  999.0,   -6.9,   -7.0,   -4.9,  999.0,  999.0,  999.0,  999.0,  999.0,  999.0,  999.0,  999.0,  999.0,  -10.4,  -11.4,  -11.4,  999.0,  999.0,  999.0,  999.0,  999.0,  999.0,  999.0,  999.0,  999.0,  999.0,  999.0,  999.0,  999.0,  999.0,  999.0,  999.0,  999.0,  999.0,  999.0,  999.0,  999.0,  999.0,  999.0,  999.0,  999.0,  999.0,  999.0,  999.0,  999.0,  999.0,  999.0,  999.0,  999.0,  999.0,  999.0,  999.0,  999.0,  999.0,  999.0,  999.0,  999.0,  999.0,  999.0,  999.0,  999.0,  999.0,  999.0
2010/03/01 21:10,  999.0,    2.2,    4.5,  999.0,    3.0,    4.9,    4.4,    5.2,    5.7,    4.8,    4.6,    4.2,    3.7,    3.6,    4.2,    4.2,    4.4,    4.0,    3.9,    3.7,    3.1,    2.8,    2.8,    2.8,    3.4,    0.7,    0.4,    0.3,  999.0,  999.0,   -3.4,   -3.7,   -4.4,   -5.3,   -5.7,   -6.1,   -6.9,   -7.1,   -6.7,   -5.0,  999.0,  999.0,  999.0,   -5.9,   -5.7,   -6.6,   -7.9,   -7.9,   -9.3,  -10.6,  -10.2,  -10.5,  -10.5,  999.0,  999.0,  999.0,  999.0,  999.0,  999.0,   -9.8,  999.0,  999.0,  999.0,  999.0,  999.0,  999.0,  999.0,  999.0,  999.0,  999.0,  999.0,  999.0,  999.0,  999.0,  999.0,  999.0,  999.0,  999.0,  999.0,  999.0,  999.0,  999.0,  999.0,  999.0,  999.0,  999.0,  999.0,  999.0,  999.0,  999.0,  999.0,  999.0,  999.0,  999.0,  999.0,  999.0,  999.0,  999.0
2010/03/01 21:20,    1.8,    3.0,    2.5,  999.0,    3.2,    3.7,    4.8,    4.3,    4.1,    4.1,    4.1,    4.2,    3.8,    3.9,    4.2,    4.1,    4.4,    4.4,    4.0,    3.6,  999.0,    2.7,    2.3,    2.7,    2.6,    2.0,    0.4,   -0.4,   -0.7,   -1.2,   -4.1,   -4.3,   -4.4,   -4.9,   -5.4,   -6.1,   -6.7,   -7.7,   -8.6,   -7.3,   -6.7,   -7.9,   -8.2,   -7.3,   -6.4,   -6.0,   -6.2,   -7.5,   -8.7,   -9.6,   -8.8,  999.0,  999.0,  999.0,  999.0,  999.0,  999.0,  999.0,   -8.8,   -9.4,  999.0,  999.0,  999.0,   -7.8,  999.0,  999.0,  999.0,  999.0,  999.0,  999.0,  999.0,  999.0,  999.0,  999.0,  999.0,  999.0,  999.0,  999.0,  999.0,  999.0,  999.0,  999.0,  999.0,  999.0,  999.0,  999.0,  999.0,  999.0,  999.0,  999.0,  999.0,  999.0,  999.0,  999.0,  999.0,  999.0,  999.0,  999.0
2010/03/01 21:30,    0.1,    1.8,    2.6,    3.0,    3.0,    3.4,    5.2,    5.0,    5.0,    4.4,    3.9,    4.0,    3.7,    4.3,    4.2,    4.4,    4.3,  999.0,  999.0,  999.0,    3.5,    2.8,    2.4,    3.1,    3.5,    2.7,    1.2,    0.8,  999.0,    0.0,   -2.0,   -2.9,   -2.9,   -3.8,   -4.2,   -4.6,   -5.1,   -6.1,   -6.0,   -6.9,   -6.8,   -6.5,   -7.0,   -6.8,   -6.8,   -7.8,   -8.5,   -8.6,   -8.1,   -7.4,   -7.5,  999.0,  999.0,  999.0,  999.0,  999.0,  999.0,  999.0,  999.0,  999.0,  999.0,  999.0,  999.0,  999.0,   -7.5,  999.0,  999.0,  999.0,  999.0,  999.0,  999.0,  999.0,  999.0,  999.0,  999.0,  999.0,  999.0,  999.0,  999.0,  999.0,  999.0,  999.0,  999.0,  999.0,  999.0,  999.0,  999.0,  999.0,  999.0,  999.0,  999.0,  999.0,  999.0,  999.0,  999.0,  999.0,  999.0,  999.0
2010/03/01 21:40,  999.0,    1.6,    2.2,    2.5,    2.4,    2.9,    3.7,    3.6,    3.9,    3.7,    3.7,    4.0,    4.1,    4.3,    4.1,    4.2,    4.3,    4.4,    4.3,    4.1,  999.0,  999.0,    3.1,    2.9,    3.6,    2.5,    1.9,    1.2,    1.1,   -1.2,  999.0,   -4.1,   -4.2,  999.0,   -3.9,   -3.7,   -3.8,   -4.5,   -4.4,   -5.5,   -5.9,  999.0,  999.0,  999.0,  999.0,  999.0,   -7.2,   -7.5,   -7.3,   -7.2,   -6.4,  999.0,  999.0,   -6.8,   -7.7,  999.0,  -10.4,  -10.9,  -10.6,  -11.2,  -12.3,  -12.1,  -10.9,  -10.7,  999.0,  999.0,  999.0,  999.0,  999.0,  999.0,  999.0,  999.0,  999.0,  999.0,  999.0,  999.0,  999.0,  999.0,  999.0,  999.0,  999.0,  999.0,  999.0,  999.0,  999.0,  999.0,  999.0,  999.0,  999.0,  999.0,  999.0,  999.0,  999.0,  999.0,  999.0,  999.0,  999.0,  999.0
2010/03/01 21:50,  999.0,    1.2,    2.0,    2.5,    2.6,    2.7,    2.7,    3.5,    3.8,    4.0,  999.0,    4.2,  999.0,    4.4,    4.5,    4.7,    4.7,    4.8,    4.5,    4.8,    4.4,  999.0,    3.2,    3.7,    4.0,    2.9,    1.9,    1.6,  999.0,  999.0,   -2.7,  999.0,   -3.6,  999.0,   -3.7,   -3.5,   -3.9,   -4.4,   -5.2,   -5.3,   -5.2,  999.0,  999.0,  999.0,  999.0,  999.0,  999.0,  999.0,  999.0,   -8.5,  999.0,  999.0,  999.0,  999.0,   -7.9,   -9.3,  -10.7,  -11.4,  999.0,  -10.1,  999.0,  999.0,  999.0,  999.0,  999.0,  -12.1,  999.0,  999.0,  999.0,  999.0,  999.0,  999.0,  999.0,  999.0,  999.0,  999.0,  999.0,  999.0,  999.0,  999.0,  999.0,  999.0,  999.0,  999.0,  999.0,  999.0,  999.0,  999.0,  999.0,  999.0,  999.0,  999.0,  999.0,  999.0,  999.0,  999.0,  999.0,  999.0
2010/03/01 22:00,  999.0,  999.0,    1.4,    2.3,    3.1,    2.8,    3.0,    3.7,    4.1,    4.0,    4.3,    4.0,    3.9,    3.7,    4.1,    4.4,    4.2,    4.1,    4.4,    4.3,    3.7,  999.0,    3.4,    3.7,    3.7,    3.0,    2.3,    2.3,    1.7,    1.2,  999.0,   -2.7,   -3.3,   -3.9,  999.0,  999.0,  999.0,  999.0,   -4.8,   -4.5,   -4.8,  999.0,   -5.3,  999.0,  999.0,   -6.5,   -6.8,   -7.1,   -7.7,   -7.5,  999.0,  999.0,  999.0,   -6.8,   -8.4,   -9.6,  -10.3,  999.0,  999.0,   -9.7,  999.0,  999.0,  -14.4,  -15.6,  999.0,  999.0,  999.0,  999.0,  999.0,  999.0,  999.0,  999.0,  999.0,  999.0,  999.0,  999.0,  999.0,  999.0,  999.0,  999.0,  999.0,  999.0,  999.0,  999.0,  999.0,  999.0,  999.0,  999.0,  999.0,  999.0,  999.0,  999.0,  999.0,  999.0,  999.0,  999.0,  999.0,  999.0
2010/03/01 22:10,   -0.4,  999.0,    0.5,    2.1,    3.0,    2.6,    3.0,    3.7,    3.5,    3.7,    3.8,    3.9,    4.4,    4.3,    3.9,    3.9,    4.2,    4.3,    4.2,    4.4,  999.0,  999.0,  999.0,    3.5,    3.7,    3.6,  999.0,  999.0,    1.9,  999.0,  999.0,  999.0,  999.0,   -3.8,  999.0,  999.0,  999.0,  999.0,  999.0,  999.0,  999.0,   -5.8,  999.0,  999.0,   -5.5,  999.0,  999.0,   -6.3,   -7.0,  999.0,  999.0,  999.0,  999.0,   -7.5,   -9.0,  -10.2,  -10.4,  999.0,  -10.2,  -11.9,  -13.1,  -13.3,  -14.2,  -15.2,  999.0,  999.0,  999.0,  999.0,  999.0,  999.0,  999.0,  999.0,  999.0,  999.0,  999.0,  999.0,  999.0,  999.0,  999.0,  999.0,  999.0,  999.0,  999.0,  999.0,  999.0,  999.0,  999.0,  999.0,  999.0,  999.0,  999.0,  999.0,  999.0,  999.0,  999.0,  999.0,  999.0,  999.0
2010/03/01 22:20,  999.0,  999.0,  999.0,    1.5,    2.8,    3.4,    2.9,    3.2,    3.7,    3.6,    3.5,    2.9,    3.7,    3.6,    4.4,    4.4,    4.1,    4.2,    4.5,    4.1,  999.0,  999.0,  999.0,    3.1,    3.3,  999.0,  999.0,    2.5,    1.7,  999.0,   -2.7,   -3.1,   -3.9,  999.0,   -3.0,  999.0,   -4.3,  999.0,   -4.1,   -3.9,  999.0,  999.0,  999.0,  999.0,  999.0,  999.0,  999.0,   -6.1,   -6.7,   -7.3,  999.0,   -5.6,   -8.2,  999.0,  999.0,  999.0,   -9.4,   -8.9,   -9.8,  999.0,  999.0,  -11.5,  -13.2,  999.0,  999.0,  999.0,  999.0,  999.0,  999.0,  999.0,  999.0,  999.0,  999.0,  999.0,  999.0,  999.0,  999.0,  999.0,  999.0,  999.0,  999.0,  999.0,  999.0,  999.0,  999.0,  999.0,  999.0,  999.0,  999.0,  999.0,  999.0,  999.0,  999.0,  999.0,  999.0,  999.0,  999.0,  999.0
2010/03/01 22:30,  999.0,    2.2,  999.0,    1.0,    2.8,    3.8,    3.7,    3.3,    3.8,    3.8,    3.7,  999.0,    4.3,    4.4,    4.4,    4.5,    4.0,    4.3,    4.4,    4.1,    3.6,  999.0,  999.0,    2.7,    3.1,  999.0,  999.0,  999.0,  999.0,   -0.0,   -2.2,   -3.6,  999.0,   -3.7,   -4.4,  999.0,   -2.9,   -4.4,   -4.5,   -5.0,  999.0,  999.0,  999.0,  999.0,  999.0,  999.0,  999.0,   -6.4,   -7.7,  999.0,  999.0,   -7.5,   -9.1,   -9.0,   -9.3,  999.0,  999.0,   -9.8,  -11.2,  -12.3,  -13.9,  -14.9,  999.0,  999.0,  999.0,  999.0,  999.0,  999.0,  999.0,  999.0,  999.0,  999.0,  999.0,  999.0,  999.0,  999.0,  999.0,  999.0,  999.0,  999.0,  999.0,  999.0,  999.0,  999.0,  999.0,  999.0,  999.0,  999.0,  999.0,  999.0,  999.0,  999.0,  999.0,  999.0,  999.0,  999.0,  999.0,  999.0
2010/03/01 22:40,  999.0,  999.0,  999.0,    0.4,    1.4,    2.3,    3.3,    3.1,    3.0,    3.1,    2.5,    3.7,    4.2,    4.5,    4.1,    4.0,    3.8,    3.7,    4.3,    4.0,    3.4,    3.3,    3.3,    2.9,    2.5,  999.0,  999.0,  999.0,  999.0,    0.3,   -1.6,  999.0,  999.0,   -3.3,   -4.6,  999.0,   -3.1,   -3.7,   -3.7,  999.0,  999.0,  999.0,   -2.4,   -3.1,   -4.3,   -5.6,  999.0,  999.0,  999.0,  999.0,   -6.3,   -7.4,  999.0,  999.0,  -10.9,  -13.5,  -14.0,  -13.4,  -13.5,  -14.6,  -15.8,  -16.5,  999.0,  999.0,  999.0,  999.0,  999.0,  999.0,  999.0,  999.0,  999.0,  999.0,  999.0,  999.0,  999.0,  999.0,  999.0,  999.0,  999.0,  999.0,  999.0,  999.0,  999.0,  999.0,  999.0,  999.0,  999.0,  999.0,  999.0,  999.0,  999.0,  999.0,  999.0,  999.0,  999.0,  999.0,  999.0,  999.0
2010/03/01 22:50,  999.0,  999.0,    0.2,    0.7,    1.4,    3.3,    3.5,    3.1,    2.9,    3.4,    3.6,    3.4,  999.0,  999.0,    3.7,    4.2,    3.7,    4.1,    4.2,    3.6,    3.3,    3.2,    3.1,    2.8,    2.5,  999.0,  999.0,  999.0,  999.0,   -0.7,   -2.1,   -3.2,   -3.0,   -4.2,   -4.8,   -3.7,   -3.4,  999.0,   -3.7,  999.0,   -3.0,  999.0,   -2.4,   -3.2,   -4.3,   -5.5,   -6.4,   -7.2,  999.0,  999.0,  999.0,   -7.9,  -11.6,  -13.1,  -13.6,  -14.7,  -15.4,  999.0,  999.0,  999.0,  999.0,  999.0,  999.0,  999.0,  999.0,  999.0,  999.0,  999.0,  999.0,  999.0,  999.0,  999.0,  999.0,  999.0,  999.0,  999.0,  999.0,  999.0,  999.0,  999.0,  999.0,  999.0,  999.0,  999.0,  999.0,  999.0,  999.0,  999.0,  999.0,  999.0,  999.0,  999.0,  999.0,  999.0,  999.0,  999.0,  999.0,  999.0
2010/03/01 23:00,  999.0,    0.7,    0.6,    1.2,    1.9,    3.1,    3.0,    2.8,    2.9,    3.2,    3.2,  999.0,    3.7,    3.7,    3.4,    3.4,    3.1,  999.0,    4.0,    3.5,    3.0,    3.1,    2.9,    2.4,    2.6,  999.0,    2.0,    2.1,    0.5,   -0.4,  999.0,  999.0,  999.0,  999.0,  999.0,   -3.5,   -2.5,   -2.7,   -2.9,   -2.5,   -2.5,   -1.7,   -2.0,   -2.7,   -3.8,   -4.8,   -5.8,   -6.3,  999.0,  999.0,   -9.8,  -11.1,  -12.3,  -13.5,  -14.3,  -16.0,  999.0,  999.0,  999.0,  999.0,  999.0,  999.0,  999.0,  999.0,  999.0,  999.0,  999.0,  999.0,  999.0,  999.0,  999.0,  999.0,  999.0,  999.0,  999.0,  999.0,  999.0,  999.0,  999.0,  999.0,  999.0,  999.0,  999.0,  999.0,  999.0,  999.0,  999.0,  999.0,  999.0,  999.0,  999.0,  999.0,  999.0,  999.0,  999.0,  999.0,  999.0,  999.0
2010/03/01 23:10,   -0.3,   -0.2,    0.0,    0.4,    1.6,    2.1,    3.2,    2.3,    2.8,    3.1,    2.9,    3.5,  999.0,    3.2,    3.1,    3.4,    3.2,    3.6,  999.0,    4.1,    3.0,    2.9,    3.0,    2.8,    2.3,  999.0,    2.2,  999.0,  999.0,  999.0,  999.0,   -2.0,  999.0,  999.0,  999.0,   -3.1,   -2.3,   -2.6,   -2.3,   -2.1,   -2.0,   -1.4,   -1.6,   -2.5,   -3.5,   -4.8,   -5.2,   -5.8,  999.0,  999.0,   -9.5,  -11.0,  -12.5,  999.0,  -14.1,  -14.9,  999.0,  999.0,  999.0,  999.0,  999.0,  999.0,  999.0,  999.0,  999.0,  999.0,  999.0,  999.0,  999.0,  999.0,  999.0,  999.0,  999.0,  999.0,  999.0,  999.0,  999.0,  999.0,  999.0,  999.0,  999.0,  999.0,  999.0,  999.0,  999.0,  999.0,  999.0,  999.0,  999.0,  999.0,  999.0,  999.0,  999.0,  999.0,  999.0,  999.0,  999.0,  999.0
2010/03/01 23:20,   -0.5,  999.0,  999.0,    0.3,    2.1,    3.3,    2.5,    2.6,    3.0,  999.0,    3.2,  999.0,    4.1,    3.5,    3.1,    3.3,    3.5,  999.0,  999.0,  999.0,    3.3,    2.8,    2.9,    2.7,    2.8,  999.0,    1.8,  999.0,  999.0,  999.0,    0.6,   -0.6,  999.0,  999.0,  999.0,   -2.7,   -1.7,   -1.6,   -1.9,   -1.9,   -1.3,   -1.3,   -1.9,   -2.9,   -4.4,   -5.4,   -5.3,  999.0,  999.0,   -7.7,   -8.6,  -10.2,  -11.4,  -13.1,  999.0,  -14.2,  999.0,  999.0,  999.0,  999.0,  999.0,  999.0,  999.0,  999.0,  999.0,  999.0,  999.0,  999.0,  999.0,  999.0,  999.0,  999.0,  999.0,  999.0,  999.0,  999.0,  999.0,  999.0,  999.0,  999.0,  999.0,  999.0,  999.0,  999.0,  999.0,  999.0,  999.0,  999.0,  999.0,  999.0,  999.0,  999.0,  999.0,  999.0,  999.0,  999.0,  999.0,  999.0
2010/03/01 23:30,   -0.6,  999.0,    0.1,    0.2,    0.6,    1.7,    2.4,    3.4,    3.1,    3.1,    3.3,  999.0,    4.1,    3.2,    3.0,    3.4,    3.2,  999.0,  999.0,    3.3,    3.0,    3.1,    3.3,    2.9,    3.1,    3.9,  999.0,  999.0,    2.4,  999.0,    1.2,   -0.8,   -1.8,  999.0,  999.0,   -1.8,   -1.5,   -1.9,   -2.2,   -1.9,   -1.9,   -2.0,   -3.0,   -4.3,   -5.5,   -5.9,  999.0,  999.0,  999.0,   -7.5,   -8.6,  -10.2,  -11.9,  999.0,  999.0,  999.0,  999.0,  999.0,  999.0,  999.0,  999.0,  999.0,  999.0,  999.0,  999.0,  999.0,  999.0,  999.0,  999.0,  999.0,  999.0,  999.0,  999.0,  999.0,  999.0,  999.0,  999.0,  999.0,  999.0,  999.0,  999.0,  999.0,  999.0,  999.0,  999.0,  999.0,  999.0,  999.0,  999.0,  999.0,  999.0,  999.0,  999.0,  999.0,  999.0,  999.0,  999.0,  999.0
2010/03/01 23:40,   -0.8,  999.0,  999.0,    0.3,    1.2,    2.2,    2.4,    3.2,    3.2,    3.2,    3.4,    4.5,  999.0,    3.8,    3.1,    3.6,    3.7,    4.0,  999.0,  999.0,  999.0,    3.3,    3.2,    3.1,    3.2,    4.1,  999.0,  999.0,  999.0,    2.4,    1.6,   -0.0,  999.0,  999.0,  999.0,   -1.9,   -1.6,   -1.7,   -2.0,  999.0,   -2.1,   -2.4,   -3.9,   -5.4,   -6.0,   -5.8,   -5.5,  999.0,  999.0,   -7.3,   -8.4,  -10.2,  -11.4,  999.0,  999.0,  999.0,  999.0,  999.0,  999.0,  999.0,  999.0,  999.0,  999.0,  999.0,  999.0,  999.0,  999.0,  999.0,  999.0,  999.0,  999.0,  999.0,  999.0,  999.0,  999.0,  999.0,  999.0,  999.0,  999.0,  999.0,  999.0,  999.0,  999.0,  999.0,  999.0,  999.0,  999.0,  999.0,  999.0,  999.0,  999.0,  999.0,  999.0,  999.0,  999.0,  999.0,  999.0,  999.0
2010/03/01 23:50,   -0.7,  999.0,    0.5,    0.3,  999.0,  999.0,  999.0,    3.6,  999.0,    4.2,  999.0,  999.0,    5.0,    3.6,    3.9,    3.9,    4.4,  999.0,  999.0,  999.0,  999.0,    4.8,    3.7,    4.1,    4.2,    4.6,  999.0,    3.8,    4.1,    2.7,    2.3,  999.0,  999.0,  999.0,   -2.8,  999.0,   -1.4,   -1.4,   -1.8,   -2.2,   -1.7,   -2.4,   -3.6,   -4.9,   -5.2,   -6.0,   -5.6,  999.0,  999.0,  999.0,   -7.6,   -9.4,  -10.7,  999.0,  -13.0,  -13.6,  -14.3,  999.0,  999.0,  999.0,  -17.0,  999.0,  -16.5,  999.0,  999.0,  999.0,  999.0,  999.0,  999.0,  999.0,  999.0,  999.0,  999.0,  999.0,  999.0,  999.0,  999.0,  999.0,  999.0,  999.0,  999.0,  999.0,  999.0,  999.0,  999.0,  999.0,  999.0,  999.0,  999.0,  999.0,  999.0,  999.0,  999.0,  999.0,  999.0,  999.0,  999.0,  999.0
